Not logged in
PANGAEA.
Data Publisher for Earth & Environmental Science

Long, Charles (2017): Radiosonde measurements from station Southern Great Plains (2013-04) [dataset]. Argonne National Laboratory, PANGAEA, https://doi.org/10.1594/PANGAEA.870946

Always quote citation above when using data! You can download the citation in several formats below.

Published: 2017-01-17DOI registered: 2017-02-14

RIS CitationBibTeX Citation ShareShow MapGoogle Earth

Other version:
Long, Charles (2017): BSRN Station-to-archive file for station Billings (2013-04) [dataset]. ftp://ftp.bsrn.awi.de/bil/bil0413.dat.gz
Coverage:
Latitude: 36.605000 * Longitude: -97.516000
Date/Time Start: 2013-04-01T00:00:00 * Date/Time End: 2013-04-30T23:59:00
Minimum ALTITUDE: 315 m * Maximum ALTITUDE: 28801 m
Event(s):
BIL (Billings) * Latitude: 36.605000 * Longitude: -97.516000 * Date/Time: 1993-06-01T00:00:00 * Elevation: 317.0 m * Location: Oklahoma, United States of America * Method/Device: Monitoring station (MONS) * Comment: BSRN station no: 28; Surface type: grass; Topography type: flat, rural; Station scientist: Laura Riihimaki (laura.riihimaki@noaa.gov)
Comment:
Launches at irregular time intervals. The radiosonde measurements from station Southern Great Plains are used for Billings and E13
Parameter(s):
#NameShort NameUnitPrincipal InvestigatorMethod/DeviceComment
DATE/TIMEDate/TimeLong, CharlesGeocode
ALTITUDEAltitudemLong, CharlesGeocode
Pressure, at given altitudePPPPhPaLong, CharlesRadiosonde, Vaisala, RS80-15LH
Temperature, airTTT°CLong, CharlesRadiosonde, Vaisala, RS80-15LH
Dew/frost pointTdTdTd°CLong, CharlesRadiosonde, Vaisala, RS80-15LH
Wind directiondddegLong, CharlesRadiosonde, Vaisala, RS80-15LH
Wind speedffm/sLong, CharlesRadiosonde, Vaisala, RS80-15LH
Size:
1738192 data points

Data

Download dataset as tab-delimited text — use the following character encoding:


Date/Time

Altitude [m]

PPPP [hPa]

TTT [°C]

TdTdTd [°C]

dd [deg]

ff [m/s]
2013-04-01T00:007755375-33.3-53.730917
2013-04-01T00:007761375-33.3-53.831017
2013-04-01T00:007767375-33.4-53.931017
2013-04-01T00:007774374-33.5-54.031017
2013-04-01T00:007780374-33.5-54.231017
2013-04-01T00:007786374-33.5-54.531017
2013-04-01T00:007793373-33.5-54.831117
2013-04-01T00:007799373-33.6-54.931117
2013-04-01T00:007805373-33.6-54.931117
2013-04-01T00:007811372-33.6-54.931118
2013-04-01T00:007818372-33.7-54.931118
2013-04-01T00:007825372-33.7-54.931118
2013-04-01T00:007831371-33.8-55.031118
2013-04-01T00:007838371-33.9-55.131118
2013-04-01T00:007845371-33.9-55.231218
2013-04-01T00:007852370-33.9-55.431218
2013-04-01T00:007858370-33.9-55.531218
2013-04-01T00:007864370-34.0-55.731218
2013-04-01T00:007870369-34.0-55.931218
2013-04-01T00:007876369-34.1-56.031218
2013-04-01T00:007883369-34.1-56.031218
2013-04-01T00:007889368-34.2-56.131218
2013-04-01T00:007896368-34.2-56.231218
2013-04-01T00:007903368-34.2-56.331218
2013-04-01T00:007909367-34.3-56.431218
2013-04-01T00:007915367-34.3-56.631218
2013-04-01T00:007922367-34.3-56.831218
2013-04-01T00:007929366-34.4-56.931218
2013-04-01T00:007935366-34.4-56.831218
2013-04-01T00:007942366-34.5-56.831218
2013-04-01T00:017948365-34.5-56.631218
2013-04-01T00:017955365-34.6-56.431218
2013-04-01T00:017961364-34.6-56.231218
2013-04-01T00:017968364-34.7-56.131218
2013-04-01T00:017974364-34.7-56.131218
2013-04-01T00:017980364-34.8-56.131218
2013-04-01T00:017987363-34.9-56.131218
2013-04-01T00:017993363-34.9-56.131218
2013-04-01T00:018000363-35.0-56.131218
2013-04-01T00:018006362-35.0-56.231218
2013-04-01T00:018013362-35.1-56.231218
2013-04-01T00:018019362-35.1-56.131218
2013-04-01T00:018024361-35.2-56.031218
2013-04-01T00:018031361-35.3-55.831218
2013-04-01T00:018037361-35.3-55.731218
2013-04-01T00:018044360-35.4-55.731218
2013-04-01T00:018051360-35.4-55.731218
2013-04-01T00:018057360-35.5-55.531218
2013-04-01T00:018063359-35.6-55.431218
2013-04-01T00:018070359-35.7-55.431218
2013-04-01T00:018078358-35.7-55.431218
2013-04-01T00:018084358-35.7-55.431218
2013-04-01T00:018090358-35.8-55.531218
2013-04-01T00:018096358-35.9-55.531218
2013-04-01T00:018102357-36.0-55.331218
2013-04-01T00:018108357-36.0-54.931218
2013-04-01T00:018115357-36.0-54.431218
2013-04-01T00:018121356-36.1-54.331218
2013-04-01T00:018128356-36.2-54.431218
2013-04-01T00:018134356-36.3-54.631218
2013-04-01T00:028141355-36.3-54.731217
2013-04-01T00:028147355-36.4-54.831217
2013-04-01T00:028153355-36.5-54.631217
2013-04-01T00:028160354-36.5-54.331217
2013-04-01T00:028166354-36.5-54.231217
2013-04-01T00:028173354-36.6-54.231217
2013-04-01T00:028179353-36.6-54.331217
2013-04-01T00:028186353-36.7-54.431217
2013-04-01T00:028192353-36.7-54.431217
2013-04-01T00:028198352-36.7-54.431217
2013-04-01T00:028205352-36.8-54.531217
2013-04-01T00:028212352-36.8-54.531217
2013-04-01T00:028219351-36.9-54.631217
2013-04-01T00:028224351-37.0-54.531117
2013-04-01T00:028231351-37.0-54.431117
2013-04-01T00:028237350-37.0-54.431117
2013-04-01T00:028243350-37.1-54.431117
2013-04-01T00:028249350-37.1-54.331117
2013-04-01T00:028256349-37.2-54.431017
2013-04-01T00:028262349-37.3-54.531017
2013-04-01T00:028268349-37.3-54.631017
2013-04-01T00:028274348-37.4-54.631017
2013-04-01T00:028281348-37.4-54.731017
2013-04-01T00:028288348-37.5-54.731017
2013-04-01T00:028295347-37.5-54.731017
2013-04-01T00:028301347-37.6-54.731017
2013-04-01T00:028307347-37.7-54.731017
2013-04-01T00:028314346-37.7-54.831017
2013-04-01T00:028320346-37.8-54.831017
2013-04-01T00:028327346-37.8-54.931017
2013-04-01T00:038333345-37.9-55.031017
2013-04-01T00:038340345-38.0-54.830917
2013-04-01T00:038346345-38.0-54.730917
2013-04-01T00:038353344-38.1-54.730917
2013-04-01T00:038359344-38.1-54.730917
2013-04-01T00:038365344-38.2-54.830917
2013-04-01T00:038371344-38.2-54.830917
2013-04-01T00:038378343-38.3-54.830917
2013-04-01T00:038384343-38.3-54.930917
2013-04-01T00:038390343-38.4-55.130917
2013-04-01T00:038397342-38.5-55.230918
2013-04-01T00:038404342-38.5-55.230818
2013-04-01T00:038411342-38.5-55.130818
2013-04-01T00:038417341-38.6-55.030818
2013-04-01T00:038424341-38.7-55.030818
2013-04-01T00:038431341-38.7-55.130818
2013-04-01T00:038437340-38.8-55.330918
2013-04-01T00:038444340-38.8-55.430918
2013-04-01T00:038450340-38.9-55.330918
2013-04-01T00:038456339-38.9-55.330918
2013-04-01T00:038463339-39.0-55.230918
2013-04-01T00:038470339-39.1-55.430918
2013-04-01T00:038476338-39.1-55.630918
2013-04-01T00:038482338-39.2-55.730918
2013-04-01T00:038488338-39.2-55.830918
2013-04-01T00:038494337-39.2-55.930918
2013-04-01T00:038501337-39.2-56.131018
2013-04-01T00:038508337-39.3-56.231018
2013-04-01T00:038514336-39.3-56.131018
2013-04-01T00:038521336-39.4-56.331018
2013-04-01T00:048527336-39.4-56.531018
2013-04-01T00:048534336-39.5-56.831018
2013-04-01T00:048540335-39.5-57.031018
2013-04-01T00:048546335-39.6-57.331018
2013-04-01T00:048554335-39.7-57.431118
2013-04-01T00:048560334-39.7-57.331118
2013-04-01T00:048567334-39.7-57.131118
2013-04-01T00:048574334-39.7-57.031118
2013-04-01T00:048580333-39.8-57.031218
2013-04-01T00:048587333-39.9-57.131218
2013-04-01T00:048593333-40.0-57.131218
2013-04-01T00:048600332-40.1-57.231218
2013-04-01T00:048607332-40.1-57.331318
2013-04-01T00:048614332-40.2-57.431318
2013-04-01T00:048621331-40.2-57.531318
2013-04-01T00:048628331-40.3-57.631318
2013-04-01T00:048634331-40.3-57.631318
2013-04-01T00:048640330-40.4-57.631418
2013-04-01T00:048647330-40.5-57.731418
2013-04-01T00:048653330-40.5-58.131418
2013-04-01T00:048660329-40.5-58.331418
2013-04-01T00:048667329-40.6-58.231318
2013-04-01T00:048674329-40.6-57.931318
2013-04-01T00:048680328-40.7-57.831318
2013-04-01T00:048687328-40.7-57.931318
2013-04-01T00:048694328-40.8-57.931318
2013-04-01T00:048700327-40.8-57.831318
2013-04-01T00:048707327-40.9-57.731318
2013-04-01T00:048714327-40.9-57.731218
2013-04-01T00:048721326-41.0-57.831218
2013-04-01T00:058728326-41.0-58.031218
2013-04-01T00:058735326-41.1-58.131218
2013-04-01T00:058741325-41.2-58.231218
2013-04-01T00:058748325-41.3-58.331218
2013-04-01T00:058755325-41.3-58.431218
2013-04-01T00:058762324-41.3-58.531218
2013-04-01T00:058768324-41.4-58.631118
2013-04-01T00:058775324-41.5-58.631118
2013-04-01T00:058781324-41.5-58.731118
2013-04-01T00:058788323-41.5-58.731118
2013-04-01T00:058794323-41.6-58.831118
2013-04-01T00:058801323-41.7-58.831118
2013-04-01T00:058807322-41.7-58.831118
2013-04-01T00:058814322-41.8-58.831118
2013-04-01T00:058820322-41.8-58.831118
2013-04-01T00:058827321-41.9-58.931118
2013-04-01T00:058834321-42.0-59.031117
2013-04-01T00:058841321-42.0-59.031117
2013-04-01T00:058848320-42.1-58.931117
2013-04-01T00:058855320-42.2-58.831117
2013-04-01T00:058861320-42.2-58.831017
2013-04-01T00:058867319-42.3-59.031017
2013-04-01T00:058874319-42.4-59.031017
2013-04-01T00:058880319-42.4-58.931017
2013-04-01T00:058886319-42.4-58.931017
2013-04-01T00:058893318-42.5-58.931017
2013-04-01T00:058900318-42.5-59.031017
2013-04-01T00:058907318-42.6-59.131017
2013-04-01T00:058913317-42.7-59.131017
2013-04-01T00:058920317-42.7-59.031117
2013-04-01T00:068926317-42.7-59.031117
2013-04-01T00:068933316-42.8-59.231117
2013-04-01T00:068939316-42.9-59.331117
2013-04-01T00:068945316-43.0-59.431117
2013-04-01T00:068952315-43.0-59.431117
2013-04-01T00:068958315-43.0-59.431117
2013-04-01T00:068966315-43.1-59.531117
2013-04-01T00:068972315-43.2-59.531117
2013-04-01T00:068979314-43.2-59.631117
2013-04-01T00:068986314-43.3-59.731117
2013-04-01T00:068992314-43.3-59.831117
2013-04-01T00:068999313-43.4-59.931117
2013-04-01T00:069005313-43.5-60.031117
2013-04-01T00:069012313-43.5-59.931117
2013-04-01T00:069019312-43.6-59.831117
2013-04-01T00:069026312-43.6-59.731117
2013-04-01T00:069032312-43.7-59.631017
2013-04-01T00:069039311-43.7-59.631017
2013-04-01T00:069045311-43.8-59.631017
2013-04-01T00:069051311-43.8-59.731017
2013-04-01T00:069058311-43.9-59.831017
2013-04-01T00:069064310-43.9-60.031017
2013-04-01T00:069070310-44.0-60.131017
2013-04-01T00:069077310-44.0-60.331017
2013-04-01T00:069084309-44.0-60.531017
2013-04-01T00:069090309-44.1-60.731117
2013-04-01T00:069098309-44.1-60.931117
2013-04-01T00:069104308-44.1-61.031117
2013-04-01T00:069111308-44.2-61.031117
2013-04-01T00:069118308-44.2-60.931117
2013-04-01T00:079124307-44.3-60.831217
2013-04-01T00:079132307-44.4-60.831217
2013-04-01T00:079139307-44.5-60.831217
2013-04-01T00:079147306-44.5-60.831317
2013-04-01T00:079154306-44.6-60.831317
2013-04-01T00:079161306-44.6-60.931317
2013-04-01T00:079167306-44.7-60.931318
2013-04-01T00:079174305-44.8-61.031418
2013-04-01T00:079181305-44.9-61.231418
2013-04-01T00:079187305-45.0-61.331418
2013-04-01T00:079193304-45.0-61.531418
2013-04-01T00:079200304-44.9-61.631418
2013-04-01T00:079207304-44.9-61.731418
2013-04-01T00:079213303-44.9-61.731418
2013-04-01T00:079219303-45.0-61.731418
2013-04-01T00:079226303-45.0-61.731418
2013-04-01T00:079232303-45.1-61.831418
2013-04-01T00:079239302-45.1-61.831418
2013-04-01T00:079247302-45.2-61.731418
2013-04-01T00:079253302-45.3-61.731418
2013-04-01T00:079259301-45.4-61.831418
2013-04-01T00:079265301-45.4-61.831418
2013-04-01T00:079272301-45.5-61.831418
2013-04-01T00:079279300-45.5-61.831418
2013-04-01T00:079286300-45.6-61.931418
2013-04-01T00:079292300-45.7-62.131418
2013-04-01T00:079299300-45.7-62.131418
2013-04-01T00:079305299-45.8-62.031418
2013-04-01T00:079312299-45.8-61.931518
2013-04-01T00:079319299-45.9-61.831518
2013-04-01T00:089325298-46.0-61.831518
2013-04-01T00:089332298-46.0-61.831518
2013-04-01T00:089338298-46.0-61.831518
2013-04-01T00:089344298-46.1-61.931518
2013-04-01T00:089350297-46.2-62.131518
2013-04-01T00:089356297-46.3-62.231518
2013-04-01T00:089364297-46.3-62.331518
2013-04-01T00:089371296-46.3-62.231519
2013-04-01T00:089377296-46.4-62.231519
2013-04-01T00:089384296-46.5-62.331519
2013-04-01T00:089391295-46.6-62.331519
2013-04-01T00:089398295-46.6-62.431519
2013-04-01T00:089405295-46.7-62.631619
2013-04-01T00:089411295-46.8-62.731619
2013-04-01T00:089418294-46.8-62.831619
2013-04-01T00:089425294-46.8-62.731619
2013-04-01T00:089431294-46.9-62.631619
2013-04-01T00:089437293-46.9-62.631619
2013-04-01T00:089444293-47.0-62.631619
2013-04-01T00:089450293-47.0-62.531619
2013-04-01T00:089456293-47.0-62.631619
2013-04-01T00:089463292-47.1-62.531619
2013-04-01T00:089470292-47.1-62.531619
2013-04-01T00:089477292-47.2-62.531619
2013-04-01T00:089483291-47.2-62.731619
2013-04-01T00:089489291-47.3-63.031619
2013-04-01T00:089496291-47.4-63.231619
2013-04-01T00:089503290-47.4-63.431619
2013-04-01T00:089510290-47.5-63.531619
2013-04-01T00:089517290-47.6-63.731619
2013-04-01T00:099524290-47.6-63.731619
2013-04-01T00:099529289-47.6-63.731619
2013-04-01T00:099535289-47.7-63.731619
2013-04-01T00:099542289-47.8-63.831619
2013-04-01T00:099549288-47.8-63.831619
2013-04-01T00:099556288-47.9-63.831619
2013-04-01T00:099562288-48.0-63.831619
2013-04-01T00:099569288-48.0-63.831619
2013-04-01T00:099575287-48.0-63.831619
2013-04-01T00:099581287-48.1-63.831719
2013-04-01T00:099587287-48.1-63.931719
2013-04-01T00:099594287-48.1-63.931719
2013-04-01T00:099601286-48.2-63.931719
2013-04-01T00:099608286-48.4-64.031719
2013-04-01T00:099614286-48.4-64.031719
2013-04-01T00:099620285-48.4-63.831719
2013-04-01T00:099626285-48.5-63.831719
2013-04-01T00:099633285-48.5-63.731819
2013-04-01T00:099640285-48.6-63.831819
2013-04-01T00:099646284-48.7-63.931819
2013-04-01T00:099652284-48.7-64.131819
2013-04-01T00:099658284-48.8-64.231819
2013-04-01T00:099664283-48.8-64.231819
2013-04-01T00:099671283-48.8-64.131819
2013-04-01T00:099677283-48.9-64.031819
2013-04-01T00:099683283-48.9-64.031819
2013-04-01T00:099690282-49.0-64.131819
2013-04-01T00:099696282-49.0-64.231819
2013-04-01T00:099702282-49.1-64.331819
2013-04-01T00:099709282-49.1-64.431819
2013-04-01T00:109716281-49.2-64.531819
2013-04-01T00:109722281-49.2-64.631819
2013-04-01T00:109728281-49.2-64.631819
2013-04-01T00:109734280-49.3-64.731819
2013-04-01T00:109740280-49.3-64.831819
2013-04-01T00:109747280-49.4-64.931819
2013-04-01T00:109754280-49.5-64.931819
2013-04-01T00:109760279-49.5-65.031819
2013-04-01T00:109766279-49.5-65.231819
2013-04-01T00:109773279-49.6-65.431819
2013-04-01T00:109779279-49.7-65.531819
2013-04-01T00:109785278-49.7-65.731819
2013-04-01T00:109792278-49.8-65.831819
2013-04-01T00:109798278-49.8-65.831819
2013-04-01T00:109804277-49.8-65.931819
2013-04-01T00:109810277-49.9-65.931819
2013-04-01T00:109817277-49.9-66.131819
2013-04-01T00:109823277-49.9-66.231819
2013-04-01T00:109828276-50.0-66.331819
2013-04-01T00:109835276-50.0-66.331819
2013-04-01T00:109841276-50.0-66.331819
2013-04-01T00:109847276-50.0-66.531819
2013-04-01T00:109853275-50.1-66.931819
2013-04-01T00:109859275-50.2-67.131819
2013-04-01T00:109865275-50.2-66.931719
2013-04-01T00:109871275-50.3-66.731719
2013-04-01T00:109878274-50.3-66.631719
2013-04-01T00:109884274-50.3-66.531719
2013-04-01T00:109890274-50.5-66.531719
2013-04-01T00:109896274-50.5-66.531719
2013-04-01T00:119902273-50.6-66.531719
2013-04-01T00:119908273-50.6-66.531719
2013-04-01T00:119915273-50.7-66.531619
2013-04-01T00:119921273-50.7-66.731619
2013-04-01T00:119927272-50.8-66.931619
2013-04-01T00:119933272-50.8-67.231619
2013-04-01T00:119940272-50.9-67.331619
2013-04-01T00:119946271-50.9-67.431519
2013-04-01T00:119953271-51.0-67.431519
2013-04-01T00:119959271-51.1-67.431519
2013-04-01T00:119966271-51.1-67.431519
2013-04-01T00:119972270-51.2-67.531519
2013-04-01T00:119979270-51.2-67.431519
2013-04-01T00:119984270-51.2-67.431519
2013-04-01T00:119991270-51.2-67.331519
2013-04-01T00:119997269-51.3-67.231519
2013-04-01T00:1110003269-51.4-67.231519
2013-04-01T00:1110010269-51.5-67.131519
2013-04-01T00:1110016269-51.5-67.131519
2013-04-01T00:1110023268-51.6-67.231419
2013-04-01T00:1110029268-51.6-67.231419
2013-04-01T00:1110036268-51.7-67.431419
2013-04-01T00:1110042268-51.7-67.531419
2013-04-01T00:1110048267-51.8-67.631419
2013-04-01T00:1110054267-51.8-67.731419
2013-04-01T00:1110060267-51.8-67.631419
2013-04-01T00:1110067266-51.9-67.631319
2013-04-01T00:1110072266-52.0-67.631319
2013-04-01T00:1110078266-52.1-67.831319
2013-04-01T00:1110085266-52.1-68.031319
2013-04-01T00:1210091265-52.1-68.131319
2013-04-01T00:1210097265-52.2-68.231319
2013-04-01T00:1210103265-52.2-68.331319
2013-04-01T00:1210110265-52.3-68.431319
2013-04-01T00:1210116264-52.3-68.531319
2013-04-01T00:1210123264-52.4-68.531319
2013-04-01T00:1210129264-52.4-68.631319
2013-04-01T00:1210135264-52.4-68.731319
2013-04-01T00:1210141263-52.5-68.731319
2013-04-01T00:1210147263-52.6-68.831319
2013-04-01T00:1210153263-52.6-68.931319
2013-04-01T00:1210160263-52.7-68.931319
2013-04-01T00:1210166262-52.7-69.031318
2013-04-01T00:1210172262-52.7-69.131318
2013-04-01T00:1210179262-52.8-69.131318
2013-04-01T00:1210186262-52.8-69.231318
2013-04-01T00:1210192261-52.8-69.231318
2013-04-01T00:1210198261-52.9-69.331318
2013-04-01T00:1210204261-53.0-69.331318
2013-04-01T00:1210210261-53.0-69.431318
2013-04-01T00:1210216260-53.1-69.431318
2013-04-01T00:1210223260-53.1-69.531318
2013-04-01T00:1210230260-53.1-69.431318
2013-04-01T00:1210236260-53.1-69.331318
2013-04-01T00:1210242259-53.3-69.331318
2013-04-01T00:1210248259-53.4-69.331318
2013-04-01T00:1210255259-53.4-69.331318
2013-04-01T00:1210260259-53.4-69.231318
2013-04-01T00:1210267258-53.5-69.131418
2013-04-01T00:1210274258-53.6-69.031418
2013-04-01T00:1310280258-53.6-68.931418
2013-04-01T00:1310287258-53.6-68.831418
2013-04-01T00:1310292257-53.7-68.831418
2013-04-01T00:1310298257-53.7-68.831418
2013-04-01T00:1310304257-53.8-68.831418
2013-04-01T00:1310311257-53.9-68.931418
2013-04-01T00:1310318256-53.9-68.931418
2013-04-01T00:1310324256-53.9-69.031418
2013-04-01T00:1310330256-54.0-69.131418
2013-04-01T00:1310336256-54.1-69.231418
2013-04-01T00:1310343255-54.1-69.331418
2013-04-01T00:1310349255-54.2-69.431418
2013-04-01T00:1310355255-54.2-69.531418
2013-04-01T00:1310361255-54.3-69.531418
2013-04-01T00:1310367254-54.3-69.631418
2013-04-01T00:1310373254-54.4-69.631418
2013-04-01T00:1310380254-54.5-69.731418
2013-04-01T00:1310386254-54.5-69.631418
2013-04-01T00:1310393253-54.6-69.531418
2013-04-01T00:1310399253-54.6-69.431418
2013-04-01T00:1310406253-54.6-69.431418
2013-04-01T00:1310412253-54.6-69.431418
2013-04-01T00:1310419252-54.7-69.431418
2013-04-01T00:1310425252-54.7-69.531418
2013-04-01T00:1310431252-54.8-69.631418
2013-04-01T00:1310437252-54.8-69.731418
2013-04-01T00:1310444251-54.9-69.831418
2013-04-01T00:1310450251-54.9-69.831418
2013-04-01T00:1310456251-55.0-69.931318
2013-04-01T00:1310462251-55.0-69.931318
2013-04-01T00:1410468250-55.0-69.931318
2013-04-01T00:1410475250-55.1-69.931318
2013-04-01T00:1410482250-55.1-70.131318
2013-04-01T00:1410488250-55.2-70.231318
2013-04-01T00:1410494249-55.2-70.431318
2013-04-01T00:1410499249-55.3-70.531318
2013-04-01T00:1410506249-55.3-70.631318
2013-04-01T00:1410512249-55.3-70.831318
2013-04-01T00:1410518248-55.4-70.931318
2013-04-01T00:1410524248-55.4-71.031318
2013-04-01T00:1410531248-55.4-71.131418
2013-04-01T00:1410537248-55.5-71.231418
2013-04-01T00:1410542247-55.5-71.331418
2013-04-01T00:1410547247-55.5-71.431418
2013-04-01T00:1410554247-55.5-71.531318
2013-04-01T00:1410560247-55.5-71.631318
2013-04-01T00:1410566247-55.6-71.731318
2013-04-01T00:1410572246-55.7-71.831318
2013-04-01T00:1410579246-55.7-71.831318
2013-04-01T00:1410584246-55.7-71.931318
2013-04-01T00:1410591246-55.8-72.031218
2013-04-01T00:1410598245-55.8-72.131218
2013-04-01T00:1410605245-55.8-72.131218
2013-04-01T00:1410612245-55.8-72.231118
2013-04-01T00:1410619244-55.8-72.231118
2013-04-01T00:1410627244-55.8-72.331018
2013-04-01T00:1410635244-55.8-72.431018
2013-04-01T00:1410644244-55.8-72.430917
2013-04-01T00:1410654243-55.8-72.430917
2013-04-01T00:1410663243-55.8-72.430817
2013-04-01T00:1510671243-55.8-72.430717
2013-04-01T00:1510679242-55.9-72.530717
2013-04-01T00:1510687242-55.9-72.630617
2013-04-01T00:1510696242-56.0-72.630517
2013-04-01T00:1510705241-56.0-72.730417
2013-04-01T00:1510715241-56.1-72.730417
2013-04-01T00:1510726240-56.2-72.730317
2013-04-01T00:1510734240-56.1-72.730217
2013-04-01T00:1510740240-56.2-72.730117
2013-04-01T00:1510747240-56.2-72.730017
2013-04-01T00:1510756239-56.3-72.829917
2013-04-01T00:1510764239-56.4-72.829917
2013-04-01T00:1510772239-56.5-72.829817
2013-04-01T00:1510779238-56.5-72.829817
2013-04-01T00:1510787238-56.6-72.829717
2013-04-01T00:1510794238-56.7-72.929717
2013-04-01T00:1510800238-56.7-72.929717
2013-04-01T00:1510807237-56.8-72.929717
2013-04-01T00:1510814237-56.8-72.929617
2013-04-01T00:1510821237-56.9-72.929617
2013-04-01T00:1510828237-57.0-72.929617
2013-04-01T00:1510835236-57.0-72.929617
2013-04-01T00:1510841236-57.1-73.029617
2013-04-01T00:1510848236-57.2-73.029617
2013-04-01T00:1510855236-57.3-73.029617
2013-04-01T00:1510863235-57.3-73.029617
2013-04-01T00:1510870235-57.4-73.029517
2013-04-01T00:1510878235-57.5-73.029517
2013-04-01T00:1510886234-57.6-73.029517
2013-04-01T00:1510894234-57.7-73.029517
2013-04-01T00:1610900234-57.7-73.029417
2013-04-01T00:1610908234-57.8-73.029417
2013-04-01T00:1610915233-57.9-73.029417
2013-04-01T00:1610922233-57.9-73.029417
2013-04-01T00:1610929233-58.0-73.029317
2013-04-01T00:1610936233-58.1-73.029317
2013-04-01T00:1610943232-58.1-73.029317
2013-04-01T00:1610951232-58.1-72.929317
2013-04-01T00:1610959232-58.2-73.029317
2013-04-01T00:1610966231-58.4-73.029317
2013-04-01T00:1610972231-58.4-73.029217
2013-04-01T00:1610979231-58.5-72.929217
2013-04-01T00:1610986231-58.5-72.829217
2013-04-01T00:1610994230-58.6-72.829217
2013-04-01T00:1611001230-58.7-72.829217
2013-04-01T00:1611008230-58.7-72.829217
2013-04-01T00:1611014230-58.8-72.829217
2013-04-01T00:1611021229-58.8-72.929217
2013-04-01T00:1611028229-58.9-72.929217
2013-04-01T00:1611035229-59.0-72.929217
2013-04-01T00:1611042229-59.0-72.929217
2013-04-01T00:1611049228-59.1-72.829217
2013-04-01T00:1611056228-59.2-72.829217
2013-04-01T00:1611065228-59.3-72.829218
2013-04-01T00:1611073228-59.4-72.829218
2013-04-01T00:1611080227-59.4-72.829218
2013-04-01T00:1611086227-59.5-72.829218
2013-04-01T00:1611093227-59.6-72.829218
2013-04-01T00:1611101227-59.7-72.829218
2013-04-01T00:1611108226-59.8-72.829218
2013-04-01T00:1711115226-59.8-72.829218
2013-04-01T00:1711121226-59.8-72.729218
2013-04-01T00:1711128226-59.9-72.729218
2013-04-01T00:1711134225-59.9-72.729219
2013-04-01T00:1711141225-60.0-72.729319
2013-04-01T00:1711147225-59.9-72.629319
2013-04-01T00:1711154225-59.9-72.629319
2013-04-01T00:1711161224-60.0-72.529319
2013-04-01T00:1711167224-60.0-72.529419
2013-04-01T00:1711173224-60.0-72.529419
2013-04-01T00:1711180224-60.0-72.629519
2013-04-01T00:1711185223-60.0-72.629519
2013-04-01T00:1711192223-60.1-72.729619
2013-04-01T00:1711198223-60.1-72.829619
2013-04-01T00:1711203223-60.1-72.929719
2013-04-01T00:1711209223-60.1-72.929719
2013-04-01T00:1711216222-60.1-72.929719
2013-04-01T00:1711223222-60.1-72.929819
2013-04-01T00:1711229222-60.2-73.029819
2013-04-01T00:1711235222-60.3-73.029819
2013-04-01T00:1711241222-60.3-73.029819
2013-04-01T00:1711247221-60.3-73.129819
2013-04-01T00:1711253221-60.3-73.129819
2013-04-01T00:1711259221-60.4-73.229719
2013-04-01T00:1711266221-60.4-73.229718
2013-04-01T00:1711272220-60.5-73.329718
2013-04-01T00:1711278220-60.5-73.429718
2013-04-01T00:1711284220-60.5-73.429618
2013-04-01T00:1711291220-60.5-73.529618
2013-04-01T00:1711297220-60.4-73.629618
2013-04-01T00:1811302219-60.3-73.629618
2013-04-01T00:1811308219-60.4-73.729518
2013-04-01T00:1811314219-60.4-73.829518
2013-04-01T00:1811321219-60.5-73.929518
2013-04-01T00:1811327218-60.5-73.929518
2013-04-01T00:1811333218-60.5-73.829518
2013-04-01T00:1811339218-60.5-73.829518
2013-04-01T00:1811346218-60.5-73.729418
2013-04-01T00:1811353218-60.5-73.629418
2013-04-01T00:1811360217-60.5-73.629418
2013-04-01T00:1811367217-60.6-73.629418
2013-04-01T00:1811373217-60.6-73.529418
2013-04-01T00:1811380217-60.7-73.529318
2013-04-01T00:1811387216-60.7-73.429318
2013-04-01T00:1811395216-60.7-73.429318
2013-04-01T00:1811402216-60.8-73.429218
2013-04-01T00:1811409216-60.8-73.429219
2013-04-01T00:1811415215-60.9-73.429219
2013-04-01T00:1811422215-60.9-73.429219
2013-04-01T00:1811430215-61.0-73.429219
2013-04-01T00:1811436215-61.0-73.429219
2013-04-01T00:1811442214-61.1-73.429119
2013-04-01T00:1811449214-61.1-73.429119
2013-04-01T00:1811456214-61.2-73.429119
2013-04-01T00:1811463214-61.2-73.429119
2013-04-01T00:1811469214-61.2-73.329119
2013-04-01T00:1811477213-61.3-73.229119
2013-04-01T00:1811484213-61.4-73.129119
2013-04-01T00:1811490213-61.4-73.129119
2013-04-01T00:1811497213-61.4-73.029220
2013-04-01T00:1911505212-61.5-73.029220
2013-04-01T00:1911512212-61.6-73.029220
2013-04-01T00:1911519212-61.6-72.929220
2013-04-01T00:1911527212-61.6-72.829220
2013-04-01T00:1911534211-61.6-72.729220
2013-04-01T00:1911542211-61.6-72.729220
2013-04-01T00:1911549211-61.7-72.729220
2013-04-01T00:1911556211-61.9-72.829220
2013-04-01T00:1911563210-61.9-72.829220
2013-04-01T00:1911570210-61.9-72.829221
2013-04-01T00:1911578210-61.8-72.829221
2013-04-01T00:1911586210-61.9-72.929221
2013-04-01T00:1911593209-61.9-72.929221
2013-04-01T00:1911601209-62.0-73.129221
2013-04-01T00:1911609209-61.9-73.129221
2013-04-01T00:1911617208-61.8-73.129222
2013-04-01T00:1911624208-61.7-73.229222
2013-04-01T00:1911632208-61.6-73.129222
2013-04-01T00:1911640208-61.5-73.229223
2013-04-01T00:1911648207-61.4-73.229223
2013-04-01T00:1911656207-61.3-73.129223
2013-04-01T00:1911663207-61.3-73.229223
2013-04-01T00:1911670207-61.3-73.229223
2013-04-01T00:1911677206-61.2-73.229224
2013-04-01T00:1911685206-61.2-73.329224
2013-04-01T00:1911692206-61.3-73.329224
2013-04-01T00:1911699206-61.3-73.429324
2013-04-01T00:1911705206-61.2-73.429324
2013-04-01T00:1911712205-61.3-73.629325
2013-04-01T00:1911720205-61.3-73.729325
2013-04-01T00:2011727205-61.4-73.829325
2013-04-01T00:2011734205-61.4-73.929325
2013-04-01T00:2011741204-61.3-73.929325
2013-04-01T00:2011748204-61.3-74.029425
2013-04-01T00:2011755204-61.4-74.129425
2013-04-01T00:2011763204-61.4-74.229426
2013-04-01T00:2011770203-61.5-74.329426
2013-04-01T00:2011777203-61.4-74.229426
2013-04-01T00:2011784203-61.4-74.229426
2013-04-01T00:2011791203-61.5-74.229426
2013-04-01T00:2011798203-61.5-74.329426
2013-04-01T00:2011805202-61.6-74.429426
2013-04-01T00:2011812202-61.6-74.529426
2013-04-01T00:2011818202-61.6-74.629426
2013-04-01T00:2011826202-61.7-74.829326
2013-04-01T00:2011835201-61.6-74.929327
2013-04-01T00:2011844201-61.4-74.829327
2013-04-01T00:2011853201-61.2-74.929227
2013-04-01T00:2011863200-61.0-74.829227
2013-04-01T00:2011873200-60.7-74.829127
2013-04-01T00:2011882200-60.7-74.829127
2013-04-01T00:2011890200-60.7-74.929127
2013-04-01T00:2011899199-60.7-75.129027
2013-04-01T00:2011907199-60.7-75.229027
2013-04-01T00:2011914199-60.7-75.329027
2013-04-01T00:2011921199-60.8-75.429027
2013-04-01T00:2011928198-60.9-75.528927
2013-04-01T00:2011935198-60.9-75.628927
2013-04-01T00:2011942198-61.0-75.728927
2013-04-01T00:2011950198-61.1-75.828927
2013-04-01T00:2111958197-61.1-75.828927
2013-04-01T00:2111966197-61.1-75.928927
2013-04-01T00:2111976197-61.2-75.928927
2013-04-01T00:2111985196-61.3-75.928927
2013-04-01T00:2111994196-61.4-75.928927
2013-04-01T00:2112003196-61.5-75.929027
2013-04-01T00:2112011196-61.6-75.929027
2013-04-01T00:2112019195-61.7-76.029028
2013-04-01T00:2112026195-61.7-76.029028
2013-04-01T00:2112033195-61.8-76.029028
2013-04-01T00:2112040195-61.8-76.129028
2013-04-01T00:2112046195-61.9-76.229028
2013-04-01T00:2112053194-62.0-76.229028
2013-04-01T00:2112060194-61.9-76.229028
2013-04-01T00:2112066194-61.9-76.229028
2013-04-01T00:2112073194-62.0-76.329128
2013-04-01T00:2112079194-62.0-76.329128
2013-04-01T00:2112087193-62.0-76.329129
2013-04-01T00:2112094193-62.0-76.329129
2013-04-01T00:2112101193-62.0-76.329129
2013-04-01T00:2112108193-62.0-76.329129
2013-04-01T00:2112114192-62.0-76.329129
2013-04-01T00:2112121192-62.0-76.329129
2013-04-01T00:2112128192-62.0-76.329129
2013-04-01T00:2112136192-62.1-76.429129
2013-04-01T00:2112143192-62.2-76.529129
2013-04-01T00:2112149191-62.2-76.729129
2013-04-01T00:2112156191-62.3-76.829129
2013-04-01T00:2112162191-62.2-76.829129
2013-04-01T00:2112168191-62.3-76.929229
2013-04-01T00:2212175191-62.4-77.029229
2013-04-01T00:2212183190-62.4-77.129229
2013-04-01T00:2212190190-62.5-77.129229
2013-04-01T00:2212197190-62.5-77.229229
2013-04-01T00:2212204190-62.5-77.229229
2013-04-01T00:2212211189-62.5-77.229229
2013-04-01T00:2212218189-62.4-77.229228
2013-04-01T00:2212225189-62.5-77.229228
2013-04-01T00:2212232189-62.5-77.329228
2013-04-01T00:2212239189-62.6-77.329228
2013-04-01T00:2212246188-62.6-77.429228
2013-04-01T00:2212252188-62.7-77.429228
2013-04-01T00:2212259188-62.7-77.429229
2013-04-01T00:2212265188-62.8-77.429229
2013-04-01T00:2212271188-62.8-77.529229
2013-04-01T00:2212278187-62.8-77.529229
2013-04-01T00:2212285187-62.8-77.429229
2013-04-01T00:2212291187-62.8-77.529229
2013-04-01T00:2212297187-62.9-77.529329
2013-04-01T00:2212304187-62.8-77.629329
2013-04-01T00:2212310186-62.8-77.629329
2013-04-01T00:2212317186-62.8-77.629329
2013-04-01T00:2212323186-62.8-77.629330
2013-04-01T00:2212329186-62.9-77.729430
2013-04-01T00:2212336186-63.0-77.829430
2013-04-01T00:2212343185-63.0-77.829430
2013-04-01T00:2212350185-62.9-77.829430
2013-04-01T00:2212356185-62.8-77.829430
2013-04-01T00:2212363185-62.8-77.929430
2013-04-01T00:2212370185-62.7-77.929430
2013-04-01T00:2312376184-62.7-77.929430
2013-04-01T00:2312383184-62.6-78.029430
2013-04-01T00:2312390184-62.5-78.129430
2013-04-01T00:2312397184-62.5-78.329430
2013-04-01T00:2312403184-62.5-78.529430
2013-04-01T00:2312410183-62.5-78.629330
2013-04-01T00:2312417183-62.4-78.829330
2013-04-01T00:2312424183-62.2-78.829330
2013-04-01T00:2312431183-61.8-78.829230
2013-04-01T00:2312438183-61.5-78.729230
2013-04-01T00:2312444182-61.2-78.629230
2013-04-01T00:2312452182-61.1-78.629130
2013-04-01T00:2312459182-61.0-78.629130
2013-04-01T00:2312466182-60.8-78.729130
2013-04-01T00:2312474182-60.8-78.829031
2013-04-01T00:2312480181-60.7-79.129031
2013-04-01T00:2312487181-60.7-79.329031
2013-04-01T00:2312494181-60.7-79.629031
2013-04-01T00:2312501181-60.7-79.829031
2013-04-01T00:2312508181-60.6-80.029031
2013-04-01T00:2312515180-60.6-80.329031
2013-04-01T00:2312521180-60.6-80.529032
2013-04-01T00:2312527180-60.7-80.729032
2013-04-01T00:2312534180-60.7-81.029032
2013-04-01T00:2312540180-60.8-81.429132
2013-04-01T00:2312547179-60.8-81.729132
2013-04-01T00:2312554179-60.8-82.029132
2013-04-01T00:2312560179-60.6-82.029132
2013-04-01T00:2312566179-60.6-82.129232
2013-04-01T00:2312573179-60.6-82.229232
2013-04-01T00:2412580178-60.5-82.129232
2013-04-01T00:2412586178-60.5-82.129232
2013-04-01T00:2412592178-60.5-82.129332
2013-04-01T00:2412599178-60.5-82.329332
2013-04-01T00:2412606178-60.4-82.429332
2013-04-01T00:2412612178-60.4-82.429332
2013-04-01T00:2412618177-60.2-82.429332
2013-04-01T00:2412625177-60.1-82.529332
2013-04-01T00:2412632177-60.0-82.629432
2013-04-01T00:2412638177-60.0-82.629432
2013-04-01T00:2412645177-60.0-82.729432
2013-04-01T00:2412652176-60.0-82.829432
2013-04-01T00:2412658176-60.0-82.929432
2013-04-01T00:2412664176-60.1-83.029432
2013-04-01T00:2412671176-60.1-83.229433
2013-04-01T00:2412678176-60.2-83.429433
2013-04-01T00:2412685175-60.1-83.529433
2013-04-01T00:2412692175-60.1-83.629433
2013-04-01T00:2412699175-60.1-83.729433
2013-04-01T00:2412705175-60.1-83.929433
2013-04-01T00:2412711175-60.0-84.029433
2013-04-01T00:2412718175-60.0-84.129433
2013-04-01T00:2412725174-59.9-84.229434
2013-04-01T00:2412732174-59.8-84.329434
2013-04-01T00:2412739174-59.7-84.329434
2013-04-01T00:2412746174-59.6-84.429434
2013-04-01T00:2412752174-59.6-84.629434
2013-04-01T00:2412759173-59.6-84.729434
2013-04-01T00:2412766173-59.5-84.829434
2013-04-01T00:2412772173-59.4-84.929434
2013-04-01T00:2512780173-59.4-85.029434
2013-04-01T00:2512786173-59.4-85.129334
2013-04-01T00:2512793172-59.3-85.129334
2013-04-01T00:2512800172-59.2-85.129334
2013-04-01T00:2512807172-59.1-85.129334
2013-04-01T00:2512814172-59.1-85.129234
2013-04-01T00:2512820172-59.1-85.129234
2013-04-01T00:2512826172-59.1-85.229234
2013-04-01T00:2512833171-59.1-85.229234
2013-04-01T00:2512839171-59.1-85.329234
2013-04-01T00:2512846171-59.1-85.329134
2013-04-01T00:2512853171-59.1-85.429134
2013-04-01T00:2512860171-59.1-85.529134
2013-04-01T00:2512866170-59.1-85.629134
2013-04-01T00:2512873170-59.1-85.729134
2013-04-01T00:2512880170-59.1-85.829134
2013-04-01T00:2512887170-59.1-86.029133
2013-04-01T00:2512894170-59.2-86.129133
2013-04-01T00:2512901170-59.2-86.329133
2013-04-01T00:2512907169-59.2-86.429133
2013-04-01T00:2512914169-59.0-86.329133
2013-04-01T00:2512922169-59.0-86.429233
2013-04-01T00:2512928169-59.0-86.329233
2013-04-01T00:2512935169-58.9-86.329233
2013-04-01T00:2512942168-58.9-86.229233
2013-04-01T00:2512949168-58.9-86.229333
2013-04-01T00:2512956168-58.9-86.129333
2013-04-01T00:2512964168-58.9-86.129333
2013-04-01T00:2512970168-59.0-86.229333
2013-04-01T00:2512977167-59.0-86.229433
2013-04-01T00:2612983167-59.0-86.229433
2013-04-01T00:2612990167-59.0-86.229432
2013-04-01T00:2612998167-59.0-86.429432
2013-04-01T00:2613005167-59.0-86.529432
2013-04-01T00:2613011167-59.1-86.729432
2013-04-01T00:2613018166-59.1-86.929532
2013-04-01T00:2613024166-59.1-87.129532
2013-04-01T00:2613031166-59.2-87.229532
2013-04-01T00:2613039166-59.2-87.229532
2013-04-01T00:2613046166-59.2-87.129532
2013-04-01T00:2613053165-59.2-87.029532
2013-04-01T00:2613060165-59.1-87.129532
2013-04-01T00:2613066165-59.1-87.229532
2013-04-01T00:2613073165-59.0-87.129532
2013-04-01T00:2613080165-59.0-87.129532
2013-04-01T00:2613088165-58.9-87.129432
2013-04-01T00:2613095164-58.8-87.229432
2013-04-01T00:2613102164-58.7-87.329432
2013-04-01T00:2613109164-58.7-87.529432
2013-04-01T00:2613114164-58.7-87.529432
2013-04-01T00:2613121164-58.8-87.429332
2013-04-01T00:2613128163-58.7-87.429332
2013-04-01T00:2613136163-58.6-87.429332
2013-04-01T00:2613142163-58.5-87.429332
2013-04-01T00:2613149163-58.5-87.429332
2013-04-01T00:2613156163-58.5-87.529332
2013-04-01T00:2613162163-58.4-87.429232
2013-04-01T00:2613169162-58.3-87.429232
2013-04-01T00:2613175162-58.3-87.529231
2013-04-01T00:2613182162-58.3-87.629231
2013-04-01T00:2713188162-58.3-87.629231
2013-04-01T00:2713195162-58.3-87.629131
2013-04-01T00:2713203162-58.3-87.629131
2013-04-01T00:2713210161-58.3-87.529131
2013-04-01T00:2713217161-58.3-87.629131
2013-04-01T00:2713224161-58.4-87.629131
2013-04-01T00:2713231161-58.4-87.629131
2013-04-01T00:2713238161-58.5-87.829131
2013-04-01T00:2713245160-58.5-87.729031
2013-04-01T00:2713252160-58.5-87.829031
2013-04-01T00:2713258160-58.6-87.829030
2013-04-01T00:2713265160-58.6-87.929030
2013-04-01T00:2713272160-58.7-88.029030
2013-04-01T00:2713280160-58.7-88.229030
2013-04-01T00:2713286159-58.8-88.329030
2013-04-01T00:2713293159-58.9-88.429030
2013-04-01T00:2713300159-58.9-88.529030
2013-04-01T00:2713306159-59.0-88.629029
2013-04-01T00:2713312159-59.0-88.729029
2013-04-01T00:2713319159-59.0-88.829029
2013-04-01T00:2713326158-59.1-88.829029
2013-04-01T00:2713333158-59.0-88.929029
2013-04-01T00:2713339158-59.0-88.929029
2013-04-01T00:2713345158-58.9-88.929029
2013-04-01T00:2713353158-58.8-88.629029
2013-04-01T00:2713360158-58.8-88.429029
2013-04-01T00:2713367157-58.8-88.429029
2013-04-01T00:2713373157-58.8-88.528929
2013-04-01T00:2713380157-58.8-88.428929
2013-04-01T00:2713387157-58.8-88.328929
2013-04-01T00:2813394157-58.9-88.328930
2013-04-01T00:2813400157-58.9-88.328930
2013-04-01T00:2813407156-58.9-88.328930
2013-04-01T00:2813414156-59.0-88.228930
2013-04-01T00:2813422156-59.1-88.128930
2013-04-01T00:2813428156-59.0-88.228930
2013-04-01T00:2813435156-59.0-88.428930
2013-04-01T00:2813442156-59.1-88.628930
2013-04-01T00:2813449155-59.1-88.828930
2013-04-01T00:2813456155-59.2-89.028931
2013-04-01T00:2813464155-59.2-89.128931
2013-04-01T00:2813471155-59.1-89.328931
2013-04-01T00:2813479155-59.1-89.428931
2013-04-01T00:2813486154-59.0-89.328931
2013-04-01T00:2813492154-59.0-89.128931
2013-04-01T00:2813499154-58.9-89.028931
2013-04-01T00:2813506154-58.8-88.828932
2013-04-01T00:2813513154-58.8-88.728932
2013-04-01T00:2813520154-58.9-88.728932
2013-04-01T00:2813528153-58.8-88.728932
2013-04-01T00:2813535153-58.8-88.828932
2013-04-01T00:2813542153-58.9-88.828932
2013-04-01T00:2813549153-58.9-89.028932
2013-04-01T00:2813557153-59.0-89.128832
2013-04-01T00:2813564153-59.0-89.128833
2013-04-01T00:2813571152-59.1-89.028833
2013-04-01T00:2813579152-59.2-89.128833
2013-04-01T00:2813586152-59.2-89.228733
2013-04-01T00:2813593152-59.2-89.328733
2013-04-01T00:2813600152-59.3-89.328733
2013-04-01T00:2913607151-59.3-89.528633
2013-04-01T00:2913614151-59.4-89.728634
2013-04-01T00:2913622151-59.5-89.928634
2013-04-01T00:2913629151-59.4-90.028534
2013-04-01T00:2913637151-59.1-90.228534
2013-04-01T00:2913644151-58.8-90.028434
2013-04-01T00:2913651150-58.8-90.028434
2013-04-01T00:2913657150-58.7-89.928434
2013-04-01T00:2913664150-58.6-89.928434
2013-04-01T00:2913671150-58.5-89.728334
2013-04-01T00:2913678150-58.5-89.628334
2013-04-01T00:2913684150-58.4-89.428334
2013-04-01T00:2913691149-58.3-89.328334
2013-04-01T00:2913697149-58.4-89.328334
2013-04-01T00:2913704149-58.4-89.428335
2013-04-01T00:2913711149-58.3-89.428335
2013-04-01T00:2913718149-58.3-89.228335
2013-04-01T00:2913725149-58.2-89.128335
2013-04-01T00:2913732148-58.2-89.228335
2013-04-01T00:2913739148-58.2-89.328335
2013-04-01T00:2913746148-58.2-89.428335
2013-04-01T00:2913753148-58.3-89.428334
2013-04-01T00:2913760148-58.4-89.528334
2013-04-01T00:2913767148-58.4-89.628334
2013-04-01T00:2913774148-58.4-89.728234
2013-04-01T00:2913781147-58.4-89.728234
2013-04-01T00:2913788147-58.3-89.728234
2013-04-01T00:2913795147-58.3-89.628234
2013-04-01T00:2913802147-58.3-89.528234
2013-04-01T00:2913808147-58.3-89.628234
2013-04-01T00:3013815147-58.3-89.628234
2013-04-01T00:3013822146-58.3-89.628234
2013-04-01T00:3013829146-58.4-89.728234
2013-04-01T00:3013835146-58.4-89.728234
2013-04-01T00:3013842146-58.5-89.728234
2013-04-01T00:3013849146-58.5-89.828234
2013-04-01T00:3013855146-58.5-89.828234
2013-04-01T00:3013862145-58.5-89.828234
2013-04-01T00:3013869145-58.5-89.828234
2013-04-01T00:3013877145-58.4-89.728234
2013-04-01T00:3013883145-58.3-89.728234
2013-04-01T00:3013889145-58.3-89.628234
2013-04-01T00:3013896145-58.3-89.628234
2013-04-01T00:3013903145-58.2-89.628234
2013-04-01T00:3013910144-58.2-89.628234
2013-04-01T00:3013917144-58.2-89.628234
2013-04-01T00:3013923144-58.3-89.628234
2013-04-01T00:3013930144-58.3-89.628234
2013-04-01T00:3013937144-58.3-89.628234
2013-04-01T00:3013944144-58.3-89.628234
2013-04-01T00:3013950143-58.2-89.628234
2013-04-01T00:3013956143-58.3-89.628234
2013-04-01T00:3013963143-58.3-89.628234
2013-04-01T00:3013969143-58.2-89.628234
2013-04-01T00:3013976143-58.2-89.628234
2013-04-01T00:3013982143-58.3-89.628234
2013-04-01T00:3013988143-58.3-89.628234
2013-04-01T00:3013995142-58.3-89.628234
2013-04-01T00:3014002142-58.3-89.628134
2013-04-01T00:3014009142-58.2-89.628134
2013-04-01T00:3114015142-58.1-89.528134
2013-04-01T00:3114021142-58.1-89.528134
2013-04-01T00:3114028142-58.1-89.528134
2013-04-01T00:3114035142-58.2-89.628034
2013-04-01T00:3114041141-58.2-89.628034
2013-04-01T00:3114048141-58.2-89.628034
2013-04-01T00:3114055141-58.1-89.527934
2013-04-01T00:3114062141-58.0-89.527934
2013-04-01T00:3114069141-58.1-89.527934
2013-04-01T00:3114076141-58.2-89.627934
2013-04-01T00:3114082140-58.2-89.627834
2013-04-01T00:3114089140-58.1-89.527834
2013-04-01T00:3114095140-58.1-89.527834
2013-04-01T00:3114102140-58.1-89.527834
2013-04-01T00:3114109140-58.1-89.527834
2013-04-01T00:3114115140-58.1-89.527834
2013-04-01T00:3114121140-58.1-89.527734
2013-04-01T00:3114128139-58.1-89.527734
2013-04-01T00:3114135139-58.1-89.527734
2013-04-01T00:3114141139-58.0-89.527834
2013-04-01T00:3114147139-58.0-89.427834
2013-04-01T00:3114154139-58.0-89.427834
2013-04-01T00:3114160139-58.0-89.427834
2013-04-01T00:3114167139-58.0-89.427834
2013-04-01T00:3114174138-58.1-89.527834
2013-04-01T00:3114180138-58.2-89.627834
2013-04-01T00:3114187138-58.3-89.627934
2013-04-01T00:3114195138-58.3-89.627934
2013-04-01T00:3114201138-58.3-89.727934
2013-04-01T00:3114207138-58.3-89.627934
2013-04-01T00:3214214138-58.2-89.627934
2013-04-01T00:3214221137-58.2-89.628034
2013-04-01T00:3214229137-58.3-89.728034
2013-04-01T00:3214236137-58.4-89.728034
2013-04-01T00:3214242137-58.4-89.728034
2013-04-01T00:3214249137-58.5-89.828034
2013-04-01T00:3214256137-58.5-89.828134
2013-04-01T00:3214263136-58.5-89.828134
2013-04-01T00:3214271136-58.6-89.828134
2013-04-01T00:3214278136-58.6-89.928134
2013-04-01T00:3214284136-58.6-89.928134
2013-04-01T00:3214291136-58.7-89.928134
2013-04-01T00:3214299136-58.8-90.028134
2013-04-01T00:3214306136-58.8-90.028235
2013-04-01T00:3214314135-58.9-90.128235
2013-04-01T00:3214322135-58.9-90.128235
2013-04-01T00:3214329135-58.9-90.128235
2013-04-01T00:3214336135-59.0-90.228235
2013-04-01T00:3214343135-59.1-90.228235
2013-04-01T00:3214350135-59.2-90.328235
2013-04-01T00:3214358134-59.2-90.328335
2013-04-01T00:3214365134-59.3-90.328335
2013-04-01T00:3214372134-59.3-90.428335
2013-04-01T00:3214378134-59.4-90.428335
2013-04-01T00:3214385134-59.4-90.428335
2013-04-01T00:3214392134-59.4-90.428335
2013-04-01T00:3214399134-59.5-90.528435
2013-04-01T00:3214407133-59.6-90.628436
2013-04-01T00:3214414133-59.7-90.628436
2013-04-01T00:3214422133-59.7-90.628436
2013-04-01T00:3314430133-59.8-90.728436
2013-04-01T00:3314437133-59.9-90.728436
2013-04-01T00:3314446133-59.9-90.828436
2013-04-01T00:3314453132-59.9-90.828436
2013-04-01T00:3314460132-60.0-90.828436
2013-04-01T00:3314468132-60.1-90.928537
2013-04-01T00:3314476132-60.2-91.028537
2013-04-01T00:3314484132-60.2-91.028537
2013-04-01T00:3314491132-60.3-91.028537
2013-04-01T00:3314498131-60.3-91.128537
2013-04-01T00:3314505131-60.3-91.128537
2013-04-01T00:3314513131-60.3-91.128537
2013-04-01T00:3314521131-60.3-91.128537
2013-04-01T00:3314528131-60.3-91.028637
2013-04-01T00:3314535131-60.2-91.028637
2013-04-01T00:3314543130-60.2-91.028637
2013-04-01T00:3314551130-60.2-91.028637
2013-04-01T00:3314559130-60.3-91.028637
2013-04-01T00:3314567130-60.3-91.128637
2013-04-01T00:3314575130-60.3-91.128637
2013-04-01T00:3314583130-60.3-91.128737
2013-04-01T00:3314590130-60.4-91.128737
2013-04-01T00:3314598129-60.4-91.128737
2013-04-01T00:3314607129-60.4-91.128737
2013-04-01T00:3314615129-60.4-91.228737
2013-04-01T00:3314623129-60.4-91.228837
2013-04-01T00:3314631129-60.4-91.128837
2013-04-01T00:3314638129-60.4-91.128837
2013-04-01T00:3314646128-60.5-91.228837
2013-04-01T00:3314653128-60.5-91.228837
2013-04-01T00:3414662128-60.5-91.228937
2013-04-01T00:3414669128-60.6-91.228936
2013-04-01T00:3414677128-60.8-91.128936
2013-04-01T00:3414684128-60.8-91.128936
2013-04-01T00:3414692127-60.8-91.328936
2013-04-01T00:3414700127-60.8-91.328935
2013-04-01T00:3414708127-60.8-91.428935
2013-04-01T00:3414715127-60.7-91.428935
2013-04-01T00:3414722127-60.7-91.328935
2013-04-01T00:3414730127-60.6-91.328935
2013-04-01T00:3414737126-60.6-91.328935
2013-04-01T00:3414745126-60.7-91.328934
2013-04-01T00:3414753126-60.7-91.428934
2013-04-01T00:3414760126-60.7-91.328934
2013-04-01T00:3414767126-60.7-91.328834
2013-04-01T00:3414775126-60.7-91.328834
2013-04-01T00:3414783126-60.6-91.328834
2013-04-01T00:3414790125-60.5-91.128834
2013-04-01T00:3414797125-60.4-91.128734
2013-04-01T00:3414804125-60.4-91.228734
2013-04-01T00:3414812125-60.4-91.228734
2013-04-01T00:3414820125-60.4-91.228634
2013-04-01T00:3414827125-60.4-91.128634
2013-04-01T00:3414835125-60.3-91.028634
2013-04-01T00:3414843124-60.1-90.928534
2013-04-01T00:3414850124-59.8-90.728534
2013-04-01T00:3414857124-59.6-90.628534
2013-04-01T00:3414864124-59.7-90.628434
2013-04-01T00:3414872124-59.7-90.628433
2013-04-01T00:3414879124-59.7-90.628433
2013-04-01T00:3514887123-59.6-90.628433
2013-04-01T00:3514895123-59.5-90.528433
2013-04-01T00:3514902123-59.4-90.428433
2013-04-01T00:3514910123-59.5-90.528333
2013-04-01T00:3514917123-59.5-90.528333
2013-04-01T00:3514925123-59.4-90.428333
2013-04-01T00:3514933123-59.5-90.528333
2013-04-01T00:3514940122-59.4-90.428333
2013-04-01T00:3514946122-59.4-90.428333
2013-04-01T00:3514954122-59.4-90.428333
2013-04-01T00:3514962122-59.4-90.428333
2013-04-01T00:3514969122-59.3-90.428333
2013-04-01T00:3514976122-59.4-90.428333
2013-04-01T00:3514984122-59.4-90.428333
2013-04-01T00:3514992121-59.4-90.428333
2013-04-01T00:3514999121-59.5-90.528332
2013-04-01T00:3515006121-59.5-90.528332
2013-04-01T00:3515013121-59.5-90.528332
2013-04-01T00:3515020121-59.6-90.628332
2013-04-01T00:3515028121-59.7-90.628332
2013-04-01T00:3515035121-59.7-90.628332
2013-04-01T00:3515043120-59.7-90.628332
2013-04-01T00:3515050120-59.7-90.728332
2013-04-01T00:3515057120-59.8-90.728432
2013-04-01T00:3515064120-59.8-90.728432
2013-04-01T00:3515071120-59.8-90.728432
2013-04-01T00:3515080120-59.8-90.728432
2013-04-01T00:3515088120-59.9-90.828432
2013-04-01T00:3515096119-59.9-90.828532
2013-04-01T00:3515104119-60.0-90.828532
2013-04-01T00:3615110119-60.0-90.928532
2013-04-01T00:3615118119-60.0-90.828532
2013-04-01T00:3615125119-60.0-90.828632
2013-04-01T00:3615132119-60.0-90.828632
2013-04-01T00:3615141119-60.0-90.828632
2013-04-01T00:3615149118-60.0-90.928732
2013-04-01T00:3615156118-60.1-90.928732
2013-04-01T00:3615163118-60.1-90.928731
2013-04-01T00:3615171118-60.1-90.928831
2013-04-01T00:3615179118-60.2-91.028831
2013-04-01T00:3615187118-60.2-91.028831
2013-04-01T00:3615194118-60.2-91.028831
2013-04-01T00:3615202117-60.2-90.928831
2013-04-01T00:3615210117-60.2-91.028831
2013-04-01T00:3615218117-60.2-91.028831
2013-04-01T00:3615226117-60.3-91.128831
2013-04-01T00:3615235117-60.4-91.128931
2013-04-01T00:3615243117-60.4-91.228930
2013-04-01T00:3615251116-60.5-91.228930
2013-04-01T00:3615260116-60.5-91.228930
2013-04-01T00:3615267116-60.5-91.229030
2013-04-01T00:3615275116-60.5-91.229030
2013-04-01T00:3615283116-60.6-91.329130
2013-04-01T00:3615291116-60.7-91.429130
2013-04-01T00:3615299116-60.8-91.429230
2013-04-01T00:3615306115-60.8-91.429230
2013-04-01T00:3615313115-60.9-91.529330
2013-04-01T00:3615320115-60.9-91.529329
2013-04-01T00:3615328115-60.9-91.529329
2013-04-01T00:3615336115-60.8-91.429429
2013-04-01T00:3715343115-60.7-91.429429
2013-04-01T00:3715349115-60.7-91.329429
2013-04-01T00:3715357115-60.7-91.429529
2013-04-01T00:3715365114-60.8-91.329529
2013-04-01T00:3715373114-61.0-91.229529
2013-04-01T00:3715379114-61.0-91.329629
2013-04-01T00:3715386114-61.0-91.529628
2013-04-01T00:3715393114-61.0-91.629628
2013-04-01T00:3715400114-61.1-91.629628
2013-04-01T00:3715407114-61.2-91.729628
2013-04-01T00:3715415113-61.2-91.729628
2013-04-01T00:3715421113-61.2-91.729728
2013-04-01T00:3715428113-61.2-91.729728
2013-04-01T00:3715436113-61.3-91.729728
2013-04-01T00:3715443113-61.3-91.729728
2013-04-01T00:3715450113-61.4-91.729728
2013-04-01T00:3715458113-61.5-91.629728
2013-04-01T00:3715465113-61.5-91.829727
2013-04-01T00:3715472112-61.5-91.929727
2013-04-01T00:3715480112-61.7-91.929627
2013-04-01T00:3715487112-61.7-91.929627
2013-04-01T00:3715495112-61.7-92.129627
2013-04-01T00:3715502112-61.7-92.029627
2013-04-01T00:3715509112-61.8-92.029627
2013-04-01T00:3715517112-61.8-92.129627
2013-04-01T00:3715524111-61.9-92.229527
2013-04-01T00:3715531111-61.9-92.229527
2013-04-01T00:3715538111-61.9-92.129527
2013-04-01T00:3715545111-62.0-92.229527
2013-04-01T00:3715552111-62.0-92.129427
2013-04-01T00:3815558111-62.0-92.129427
2013-04-01T00:3815565111-62.0-92.229427
2013-04-01T00:3815572111-62.1-92.229327
2013-04-01T00:3815578111-62.1-92.329327
2013-04-01T00:3815585110-62.1-92.329327
2013-04-01T00:3815592110-62.1-92.329227
2013-04-01T00:3815599110-62.0-92.329227
2013-04-01T00:3815606110-62.0-92.329227
2013-04-01T00:3815612110-61.9-92.229227
2013-04-01T00:3815619110-61.9-92.229127
2013-04-01T00:3815626110-61.9-92.229127
2013-04-01T00:3815633110-61.9-92.129127
2013-04-01T00:3815640109-62.0-91.829027
2013-04-01T00:3815647109-62.0-91.729027
2013-04-01T00:3815654109-62.0-91.829027
2013-04-01T00:3815661109-62.1-91.629027
2013-04-01T00:3815668109-62.2-91.728927
2013-04-01T00:3815675109-62.2-91.828927
2013-04-01T00:3815682109-62.2-91.828827
2013-04-01T00:3815689109-62.2-91.828826
2013-04-01T00:3815695108-62.3-91.928826
2013-04-01T00:3815702108-62.3-91.928726
2013-04-01T00:3815709108-62.3-92.028726
2013-04-01T00:3815716108-62.2-91.928726
2013-04-01T00:3815723108-62.2-91.928626
2013-04-01T00:3815730108-62.2-92.028626
2013-04-01T00:3815736108-62.2-91.728626
2013-04-01T00:3815743108-62.2-91.928526
2013-04-01T00:3815750107-62.2-92.028526
2013-04-01T00:3815757107-62.3-91.828526
2013-04-01T00:3915764107-62.3-92.028426
2013-04-01T00:3915772107-62.4-92.028426
2013-04-01T00:3915778107-62.4-92.028326
2013-04-01T00:3915784107-62.4-92.228326
2013-04-01T00:3915791107-62.3-92.228326
2013-04-01T00:3915797107-62.2-92.228226
2013-04-01T00:3915803107-62.1-92.328226
2013-04-01T00:3915810106-62.1-92.228126
2013-04-01T00:3915816106-62.1-92.028126
2013-04-01T00:3915822106-62.1-92.128026
2013-04-01T00:3915830106-62.0-92.128026
2013-04-01T00:3915838106-62.0-92.128026
2013-04-01T00:3915845106-62.0-92.127926
2013-04-01T00:3915851106-61.9-92.027926
2013-04-01T00:3915858106-61.8-92.027927
2013-04-01T00:3915865105-61.8-91.927927
2013-04-01T00:3915871105-61.8-91.827927
2013-04-01T00:3915878105-61.8-91.727827
2013-04-01T00:3915885105-61.8-91.527827
2013-04-01T00:3915891105-61.7-91.427827
2013-04-01T00:3915898105-61.7-91.627827
2013-04-01T00:3915905105-61.7-91.627827
2013-04-01T00:3915911105-61.6-91.627828
2013-04-01T00:3915918105-61.5-91.727828
2013-04-01T00:3915925104-61.4-91.627828
2013-04-01T00:3915932104-61.3-91.327828
2013-04-01T00:3915939104-61.3-91.127828
2013-04-01T00:3915946104-61.2-90.927728
2013-04-01T00:3915953104-61.2-90.927728
2013-04-01T00:3915959104-61.1-90.827728
2013-04-01T00:4015965104-61.1-90.827728
2013-04-01T00:4015972104-61.1-90.827728
2013-04-01T00:4015979104-61.1-90.827728
2013-04-01T00:4015986103-61.1-90.927728
2013-04-01T00:4015994103-61.0-90.927728
2013-04-01T00:4016001103-61.0-91.027728
2013-04-01T00:4016007103-61.0-91.127828
2013-04-01T00:4016014103-61.0-91.227828
2013-04-01T00:4016022103-60.9-91.227828
2013-04-01T00:4016030103-60.8-91.227828
2013-04-01T00:4016037103-60.8-91.127828
2013-04-01T00:4016043103-60.7-91.127928
2013-04-01T00:4016049102-60.7-90.927928
2013-04-01T00:4016055102-60.7-90.927928
2013-04-01T00:4016061102-60.6-90.827929
2013-04-01T00:4016068102-60.5-90.627929
2013-04-01T00:4016076102-60.5-90.427929
2013-04-01T00:4016084102-60.5-90.327929
2013-04-01T00:4016091102-60.6-90.328029
2013-04-01T00:4016097102-60.6-90.328029
2013-04-01T00:4016104102-60.5-90.428029
2013-04-01T00:4016110101-60.5-90.428029
2013-04-01T00:4016117101-60.5-90.428029
2013-04-01T00:4016124101-60.5-90.528029
2013-04-01T00:4016131101-60.6-90.627929
2013-04-01T00:4016138101-60.6-90.727929
2013-04-01T00:4016145101-60.7-90.827929
2013-04-01T00:4016152101-60.6-91.027929
2013-04-01T00:4016159101-60.7-91.127929
2013-04-01T00:4016167100-60.7-91.227929
2013-04-01T00:4116174100-60.8-91.227929
2013-04-01T00:4116181100-60.8-91.227829
2013-04-01T00:4116189100-60.9-91.227829
2013-04-01T00:4116197100-60.9-91.127829
2013-04-01T00:4116205100-60.8-91.127729
2013-04-01T00:4116213100-60.9-91.127729
2013-04-01T00:4116220100-60.9-91.227729
2013-04-01T00:4116227100-60.9-91.127629
2013-04-01T00:411623699-60.9-91.027629
2013-04-01T00:411624499-61.0-91.127629
2013-04-01T00:411625299-61.0-91.127629
2013-04-01T00:411625999-61.0-91.127529
2013-04-01T00:411626799-61.1-91.127529
2013-04-01T00:411627599-61.1-91.127529
2013-04-01T00:411628399-61.1-91.227529
2013-04-01T00:411629199-61.0-91.227529
2013-04-01T00:411629998-60.9-91.327529
2013-04-01T00:411630798-61.0-91.427529
2013-04-01T00:411631498-61.0-91.627528
2013-04-01T00:411632298-61.1-91.527528
2013-04-01T00:411633098-61.0-91.627528
2013-04-01T00:411633798-60.9-91.527528
2013-04-01T00:411634698-60.7-91.327528
2013-04-01T00:411635398-60.5-91.227528
2013-04-01T00:411636097-60.4-91.127528
2013-04-01T00:411636897-60.4-90.927528
2013-04-01T00:411637697-60.5-90.727528
2013-04-01T00:411638597-60.5-90.627528
2013-04-01T00:411639397-60.4-90.627527
2013-04-01T00:411640197-60.3-90.727527
2013-04-01T00:421640897-60.3-90.827627
2013-04-01T00:421641697-60.2-90.727627
2013-04-01T00:421642396-60.3-90.627627
2013-04-01T00:421643196-60.3-90.527627
2013-04-01T00:421643996-60.3-90.427727
2013-04-01T00:421644796-60.2-90.327727
2013-04-01T00:421645596-60.2-90.227727
2013-04-01T00:421646496-60.2-90.127827
2013-04-01T00:421647196-60.2-90.227827
2013-04-01T00:421647896-60.3-90.427828
2013-04-01T00:421648695-60.3-90.527928
2013-04-01T00:421649495-60.3-90.627928
2013-04-01T00:421650195-60.3-90.727928
2013-04-01T00:421650995-60.3-90.828028
2013-04-01T00:421651795-60.2-90.828028
2013-04-01T00:421652595-60.2-90.728128
2013-04-01T00:421653495-60.2-90.528128
2013-04-01T00:421654295-60.2-90.428128
2013-04-01T00:421655094-60.2-90.528128
2013-04-01T00:421655894-60.2-90.728228
2013-04-01T00:421656594-60.2-90.828228
2013-04-01T00:421657394-60.2-91.028228
2013-04-01T00:421658194-60.3-91.028228
2013-04-01T00:421658994-60.3-91.128228
2013-04-01T00:421659794-60.3-91.128228
2013-04-01T00:421660594-60.3-91.128228
2013-04-01T00:421661294-60.3-91.028228
2013-04-01T00:421662093-60.4-90.928228
2013-04-01T00:421662893-60.5-90.728228
2013-04-01T00:421663693-60.6-90.528228
2013-04-01T00:431664493-60.6-90.428228
2013-04-01T00:431665293-60.7-90.428228
2013-04-01T00:431666093-60.7-90.528228
2013-04-01T00:431666793-60.8-90.528128
2013-04-01T00:431667593-60.8-90.628128
2013-04-01T00:431668492-60.9-90.628128
2013-04-01T00:431669392-60.9-90.628128
2013-04-01T00:431670392-61.0-90.628028
2013-04-01T00:431671392-61.1-90.628028
2013-04-01T00:431672392-61.1-90.728028
2013-04-01T00:431673292-61.3-90.727928
2013-04-01T00:431674192-61.4-90.827928
2013-04-01T00:431674992-61.4-90.827928
2013-04-01T00:431675991-61.5-91.027828
2013-04-01T00:431676791-61.6-91.027828
2013-04-01T00:431677691-61.7-90.927728
2013-04-01T00:431678691-61.8-90.927728
2013-04-01T00:431679491-61.8-91.027729
2013-04-01T00:431680291-61.9-90.927629
2013-04-01T00:431680991-61.9-91.027629
2013-04-01T00:431681691-62.0-91.027629
2013-04-01T00:431682490-62.1-91.027529
2013-04-01T00:431683190-62.2-91.127529
2013-04-01T00:431683790-62.3-91.227529
2013-04-01T00:431684590-62.3-91.227529
2013-04-01T00:431685290-62.4-91.327529
2013-04-01T00:431685990-62.5-91.227529
2013-04-01T00:431686590-62.5-91.427529
2013-04-01T00:431687290-62.6-91.427530
2013-04-01T00:431687990-62.6-91.327530
2013-04-01T00:441688690-62.7-91.527530
2013-04-01T00:441689389-62.7-91.527530
2013-04-01T00:441690089-62.7-91.527530
2013-04-01T00:441690889-62.7-91.727530
2013-04-01T00:441691589-62.8-91.727530
2013-04-01T00:441692189-62.9-91.827530
2013-04-01T00:441692789-62.9-92.227530
2013-04-01T00:441693489-62.8-92.227631
2013-04-01T00:441694189-62.8-92.527631
2013-04-01T00:441694989-62.6-92.627631
2013-04-01T00:441695688-62.3-92.527731
2013-04-01T00:441696388-62.0-92.327731
2013-04-01T00:441697088-61.8-91.827731
2013-04-01T00:441697888-61.7-91.627831
2013-04-01T00:441698688-61.7-91.327831
2013-04-01T00:441699488-61.7-91.027931
2013-04-01T00:441700188-61.7-90.827931
2013-04-01T00:441700988-61.7-90.727931
2013-04-01T00:441701688-61.7-90.528031
2013-04-01T00:441702288-61.7-90.628031
2013-04-01T00:441703087-61.8-90.528131
2013-04-01T00:441703787-61.9-90.628131
2013-04-01T00:441704587-61.9-90.728131
2013-04-01T00:441705287-62.0-90.728231
2013-04-01T00:441705987-62.0-90.828231
2013-04-01T00:441706787-62.0-90.828231
2013-04-01T00:441707387-62.0-90.828331
2013-04-01T00:441708087-62.1-90.928331
2013-04-01T00:441708787-62.2-90.928331
2013-04-01T00:441709587-62.2-91.028331
2013-04-01T00:451710286-62.3-91.128431
2013-04-01T00:451710986-62.3-91.128431
2013-04-01T00:451711686-62.3-91.128431
2013-04-01T00:451712486-62.4-91.328430
2013-04-01T00:451713086-62.5-91.328530
2013-04-01T00:451713886-62.5-91.528530
2013-04-01T00:451714686-62.5-91.628530
2013-04-01T00:451715286-62.5-91.628530
2013-04-01T00:451716086-62.5-91.728530
2013-04-01T00:451716886-62.5-91.728529
2013-04-01T00:451717685-62.5-91.728529
2013-04-01T00:451718385-62.5-91.728529
2013-04-01T00:451719185-62.5-91.728529
2013-04-01T00:451719885-62.5-91.628528
2013-04-01T00:451720585-62.5-91.628528
2013-04-01T00:451721285-62.5-91.628528
2013-04-01T00:451722085-62.4-91.628528
2013-04-01T00:451722985-62.5-91.528528
2013-04-01T00:451723685-62.5-91.528528
2013-04-01T00:451724484-62.6-91.528528
2013-04-01T00:451725384-62.6-91.628527
2013-04-01T00:451726184-62.6-91.728427
2013-04-01T00:451726984-62.6-91.628427
2013-04-01T00:451727684-62.6-91.728427
2013-04-01T00:451728484-62.6-91.728427
2013-04-01T00:451729284-62.6-91.728427
2013-04-01T00:451729884-62.6-91.828327
2013-04-01T00:451730784-62.7-91.728327
2013-04-01T00:451731584-62.7-91.728327
2013-04-01T00:451732283-62.7-91.728327
2013-04-01T00:461732983-62.7-91.828327
2013-04-01T00:461733783-62.8-91.828327
2013-04-01T00:461734583-62.7-91.928327
2013-04-01T00:461735283-62.7-91.828327
2013-04-01T00:461736083-62.7-91.828327
2013-04-01T00:461736983-62.7-91.928427
2013-04-01T00:461737783-62.7-91.928427
2013-04-01T00:461738583-62.7-91.928427
2013-04-01T00:461739482-62.7-91.928527
2013-04-01T00:461740282-62.7-91.828527
2013-04-01T00:461741082-62.7-91.828527
2013-04-01T00:461741882-62.7-91.728526
2013-04-01T00:461742582-62.6-91.728626
2013-04-01T00:461743482-62.6-91.828626
2013-04-01T00:461744282-62.7-91.628626
2013-04-01T00:461745082-62.7-91.628626
2013-04-01T00:461745982-62.8-91.628626
2013-04-01T00:461746781-62.8-91.528626
2013-04-01T00:461747481-62.9-91.628626
2013-04-01T00:461748381-63.0-91.728626
2013-04-01T00:461749181-63.0-91.728626
2013-04-01T00:461749981-63.0-91.828526
2013-04-01T00:461750781-63.1-91.928526
2013-04-01T00:461751681-63.1-91.828526
2013-04-01T00:461752381-63.1-92.028526
2013-04-01T00:461753281-63.2-92.028526
2013-04-01T00:461754080-63.2-91.928426
2013-04-01T00:461754880-63.2-92.128426
2013-04-01T00:461755780-63.3-92.228426
2013-04-01T00:461756580-63.3-92.228326
2013-04-01T00:471757480-63.3-92.228326
2013-04-01T00:471758280-63.3-92.128326
2013-04-01T00:471759080-63.2-92.128226
2013-04-01T00:471759880-63.2-92.128226
2013-04-01T00:471760680-63.2-92.228226
2013-04-01T00:471761480-63.2-92.128226
2013-04-01T00:471762179-63.2-92.028126
2013-04-01T00:471762979-63.2-92.128126
2013-04-01T00:471763779-63.1-91.928126
2013-04-01T00:471764579-63.1-91.928126
2013-04-01T00:471765279-63.1-92.028126
2013-04-01T00:471766179-63.2-92.028126
2013-04-01T00:471766879-63.3-92.028127
2013-04-01T00:471767679-63.4-92.128127
2013-04-01T00:471768579-63.4-92.128127
2013-04-01T00:471769379-63.3-92.128127
2013-04-01T00:471770078-63.3-92.128127
2013-04-01T00:471770978-63.2-92.028127
2013-04-01T00:471771878-63.1-91.828127
2013-04-01T00:471772578-63.0-91.728128
2013-04-01T00:471773278-63.0-91.628028
2013-04-01T00:471774078-63.1-91.628028
2013-04-01T00:471774878-63.2-91.528028
2013-04-01T00:471775678-63.3-91.528028
2013-04-01T00:471776478-63.4-91.628028
2013-04-01T00:471777278-63.4-91.728028
2013-04-01T00:471777977-63.4-91.928028
2013-04-01T00:471778877-63.4-92.028028
2013-04-01T00:471779577-63.3-92.128028
2013-04-01T00:471780377-63.4-92.128028
2013-04-01T00:481781177-63.4-92.228128
2013-04-01T00:481781977-63.3-92.328128
2013-04-01T00:481782777-63.3-92.328128
2013-04-01T00:481783577-63.3-92.228228
2013-04-01T00:481784377-63.2-92.228228
2013-04-01T00:481785177-63.0-92.328328
2013-04-01T00:481785976-62.9-92.328328
2013-04-01T00:481786576-62.9-92.328428
2013-04-01T00:481787376-62.9-92.328428
2013-04-01T00:481788176-63.0-92.228529
2013-04-01T00:481789076-63.0-92.228529
2013-04-01T00:481789776-63.0-92.128529
2013-04-01T00:481790476-63.0-92.028629
2013-04-01T00:481791276-62.9-91.928629
2013-04-01T00:481791976-62.7-91.928629
2013-04-01T00:481792676-62.7-91.828729
2013-04-01T00:481793575-62.7-91.828729
2013-04-01T00:481794375-62.7-91.828729
2013-04-01T00:481795075-62.7-91.728729
2013-04-01T00:481795775-62.7-91.828829
2013-04-01T00:481796475-62.7-91.828829
2013-04-01T00:481797175-62.8-91.828830
2013-04-01T00:481797975-62.8-91.828830
2013-04-01T00:481798775-62.9-91.928930
2013-04-01T00:481799475-62.9-91.928930
2013-04-01T00:481800175-62.9-91.828930
2013-04-01T00:481800975-62.9-91.828930
2013-04-01T00:481801874-62.9-91.729030
2013-04-01T00:481802474-62.8-91.729030
2013-04-01T00:481803174-62.8-91.729031
2013-04-01T00:491803974-62.8-91.829031
2013-04-01T00:491804674-62.8-91.829031
2013-04-01T00:491805274-62.9-91.829031
2013-04-01T00:491806074-62.9-91.829031
2013-04-01T00:491806774-62.9-91.929031
2013-04-01T00:491807474-62.9-92.129030
2013-04-01T00:491808174-62.8-92.129030
2013-04-01T00:491808874-62.8-92.329030
2013-04-01T00:491809474-62.7-92.329030
2013-04-01T00:491810173-62.6-92.329030
2013-04-01T00:491810873-62.6-92.329030
2013-04-01T00:491811573-62.5-92.329030
2013-04-01T00:491812273-62.5-92.229030
2013-04-01T00:491812973-62.5-92.228930
2013-04-01T00:491813573-62.4-92.028930
2013-04-01T00:491814173-62.5-92.028929
2013-04-01T00:491814873-62.5-92.028929
2013-04-01T00:491815673-62.4-91.928929
2013-04-01T00:491816273-62.3-91.929029
2013-04-01T00:491816773-62.2-91.929029
2013-04-01T00:491817473-62.0-91.929029
2013-04-01T00:491818273-61.9-91.829029
2013-04-01T00:491819072-61.8-91.829029
2013-04-01T00:491819672-61.8-91.829129
2013-04-01T00:491820372-61.8-91.829129
2013-04-01T00:491821072-61.8-91.729128
2013-04-01T00:491821672-61.8-91.629128
2013-04-01T00:491822372-61.9-91.729128
2013-04-01T00:491823172-61.9-91.629128
2013-04-01T00:491823872-61.9-91.729228
2013-04-01T00:501824572-62.0-91.629228
2013-04-01T00:501825272-62.0-91.729228
2013-04-01T00:501825972-62.0-91.729127
2013-04-01T00:501826672-62.0-91.729127
2013-04-01T00:501827271-62.0-91.729127
2013-04-01T00:501828071-62.1-91.929127
2013-04-01T00:501828771-62.2-91.929127
2013-04-01T00:501829371-62.2-91.929127
2013-04-01T00:501830071-62.3-92.229127
2013-04-01T00:501830971-62.3-92.329127
2013-04-01T00:501831671-62.2-92.429127
2013-04-01T00:501832471-62.1-92.329126
2013-04-01T00:501833271-61.9-92.229226
2013-04-01T00:501833971-61.7-92.029226
2013-04-01T00:501834671-61.6-92.029226
2013-04-01T00:501835371-61.7-92.129226
2013-04-01T00:501836070-61.7-92.129226
2013-04-01T00:501836670-61.7-92.129226
2013-04-01T00:501837370-61.6-92.029226
2013-04-01T00:501838070-61.5-91.929226
2013-04-01T00:501838870-61.6-91.929225
2013-04-01T00:501839570-61.6-91.929225
2013-04-01T00:501840270-61.6-91.929225
2013-04-01T00:501840970-61.6-91.929125
2013-04-01T00:501841770-61.7-92.029125
2013-04-01T00:501842470-61.7-92.029125
2013-04-01T00:501843270-61.7-92.129025
2013-04-01T00:501844070-61.7-92.129025
2013-04-01T00:501844769-61.7-92.129025
2013-04-01T00:501845469-61.7-92.129025
2013-04-01T00:511846169-61.7-92.028925
2013-04-01T00:511846869-61.7-92.028925
2013-04-01T00:511847469-61.7-92.128925
2013-04-01T00:511848069-61.7-92.128925
2013-04-01T00:511848869-61.7-92.128825
2013-04-01T00:511849769-61.6-92.028825
2013-04-01T00:511850469-61.6-92.028825
2013-04-01T00:511851069-61.6-92.028825
2013-04-01T00:511851769-61.6-92.028825
2013-04-01T00:511852469-61.7-92.028825
2013-04-01T00:511853169-61.7-92.028825
2013-04-01T00:511854068-61.6-92.028825
2013-04-01T00:511854768-61.6-92.028825
2013-04-01T00:511855468-61.6-92.028825
2013-04-01T00:511856168-61.5-92.028925
2013-04-01T00:511856868-61.5-91.928925
2013-04-01T00:511857568-61.5-91.928925
2013-04-01T00:511858368-61.5-91.928925
2013-04-01T00:511859068-61.5-91.929025
2013-04-01T00:511859968-61.4-91.929025
2013-04-01T00:511860768-61.5-91.929025
2013-04-01T00:511861468-61.5-91.929125
2013-04-01T00:511862268-61.5-91.929125
2013-04-01T00:511863067-61.5-91.929225
2013-04-01T00:511863967-61.5-92.029225
2013-04-01T00:511864767-61.5-91.929325
2013-04-01T00:511865467-61.5-91.929325
2013-04-01T00:511866167-61.5-91.929425
2013-04-01T00:511866767-61.7-92.129424
2013-04-01T00:511867567-61.7-92.129524
2013-04-01T00:521868467-61.7-92.129524
2013-04-01T00:521869267-61.7-92.129624
2013-04-01T00:521869867-61.8-92.129624
2013-04-01T00:521870667-61.9-92.229624
2013-04-01T00:521871467-61.9-92.229723
2013-04-01T00:521872266-61.9-92.229723
2013-04-01T00:521872966-62.0-92.329723
2013-04-01T00:521873666-62.0-92.329823
2013-04-01T00:521874266-61.9-92.229822
2013-04-01T00:521875066-61.6-92.029822
2013-04-01T00:521875866-61.4-91.829922
2013-04-01T00:521876666-61.2-91.729922
2013-04-01T00:521877366-61.1-91.729922
2013-04-01T00:521878066-61.1-91.630022
2013-04-01T00:521878866-61.1-91.630022
2013-04-01T00:521879766-61.0-91.630022
2013-04-01T00:521880566-61.0-91.630122
2013-04-01T00:521881266-61.0-91.630122
2013-04-01T00:521882065-61.1-91.630122
2013-04-01T00:521882865-61.1-91.530122
2013-04-01T00:521883665-61.1-91.530122
2013-04-01T00:521884365-61.2-91.530122
2013-04-01T00:521885065-61.2-91.530122
2013-04-01T00:521885765-61.3-91.530121
2013-04-01T00:521886565-61.3-91.530121
2013-04-01T00:521887265-61.3-91.630121
2013-04-01T00:521888065-61.3-91.730121
2013-04-01T00:521888865-61.4-91.830021
2013-04-01T00:521889665-61.5-91.930021
2013-04-01T00:521890365-61.5-91.930021
2013-04-01T00:531891064-61.5-91.929921
2013-04-01T00:531891764-61.6-92.029921
2013-04-01T00:531892664-61.6-92.029821
2013-04-01T00:531893364-61.5-91.929821
2013-04-01T00:531894164-61.5-91.929821
2013-04-01T00:531894864-61.5-91.929721
2013-04-01T00:531895664-61.4-91.929721
2013-04-01T00:531896464-61.4-91.829621
2013-04-01T00:531897164-61.4-91.829621
2013-04-01T00:531897864-61.3-91.829520
2013-04-01T00:531898564-61.4-91.829520
2013-04-01T00:531899464-61.5-91.829420
2013-04-01T00:531900164-61.5-91.929320
2013-04-01T00:531901063-61.6-92.029320
2013-04-01T00:531901963-61.7-92.029220
2013-04-01T00:531902663-61.7-92.129220
2013-04-01T00:531903463-61.7-92.129120
2013-04-01T00:531904263-61.8-92.129120
2013-04-01T00:531904963-61.8-92.129020
2013-04-01T00:531905663-61.7-92.129020
2013-04-01T00:531906463-61.8-92.129020
2013-04-01T00:531907163-61.8-92.128920
2013-04-01T00:531907863-61.9-92.228920
2013-04-01T00:531908663-61.9-92.228920
2013-04-01T00:531909463-61.9-92.228920
2013-04-01T00:531910462-61.9-92.228920
2013-04-01T00:531911262-61.9-92.228919
2013-04-01T00:531912062-61.8-92.129019
2013-04-01T00:531912862-61.7-92.129019
2013-04-01T00:531913562-61.7-92.129019
2013-04-01T00:541914462-61.7-92.129019
2013-04-01T00:541915362-61.8-92.129119
2013-04-01T00:541916162-61.8-92.229118
2013-04-01T00:541916962-61.9-92.229118
2013-04-01T00:541917762-61.9-92.229118
2013-04-01T00:541918662-62.0-92.329218
2013-04-01T00:541919462-62.0-92.329218
2013-04-01T00:541920262-62.1-92.329218
2013-04-01T00:541921061-62.2-92.229218
2013-04-01T00:541921961-62.2-92.129218
2013-04-01T00:541922961-62.3-91.929318
2013-04-01T00:541923661-62.4-91.929318
2013-04-01T00:541924561-62.4-91.929317
2013-04-01T00:541925361-62.5-92.029317
2013-04-01T00:541926161-62.6-92.029417
2013-04-01T00:541927061-62.8-92.229417
2013-04-01T00:541928061-62.9-92.329417
2013-04-01T00:541928761-62.9-92.429416
2013-04-01T00:541929461-63.0-92.629516
2013-04-01T00:541930361-63.0-92.729516
2013-04-01T00:541931360-63.1-92.929516
2013-04-01T00:541932260-63.2-93.029515
2013-04-01T00:541932960-63.3-93.229415
2013-04-01T00:541933760-63.3-93.229415
2013-04-01T00:541934560-63.3-93.229415
2013-04-01T00:541935460-63.4-93.329415
2013-04-01T00:541936260-63.5-93.329315
2013-04-01T00:541936960-63.5-93.429314
2013-04-01T00:541937760-63.5-93.329214
2013-04-01T00:541938560-63.4-93.329214
2013-04-01T00:551939360-63.4-93.329114
2013-04-01T00:551940160-63.4-93.329114
2013-04-01T00:551941059-63.4-93.329015
2013-04-01T00:551942059-63.4-93.329015
2013-04-01T00:551942959-63.4-93.328915
2013-04-01T00:551943759-63.3-93.228915
2013-04-01T00:551944659-63.3-93.128915
2013-04-01T00:551945559-63.3-92.928815
2013-04-01T00:551946459-63.3-92.828816
2013-04-01T00:551947259-63.3-92.828716
2013-04-01T00:551948059-63.3-92.728716
2013-04-01T00:551948859-63.4-92.628716
2013-04-01T00:551949659-63.4-92.628616
2013-04-01T00:551950459-63.5-92.628616
2013-04-01T00:551951258-63.6-92.628617
2013-04-01T00:551952158-63.6-92.728517
2013-04-01T00:551953058-63.6-92.728517
2013-04-01T00:551953758-63.7-92.828517
2013-04-01T00:551954458-63.8-92.928417
2013-04-01T00:551955358-63.9-93.028417
2013-04-01T00:551956258-63.9-93.028417
2013-04-01T00:551957158-63.9-93.128318
2013-04-01T00:551957958-63.9-93.128318
2013-04-01T00:551958758-63.9-93.128318
2013-04-01T00:551959458-63.9-93.128318
2013-04-01T00:551960158-64.0-93.128318
2013-04-01T00:551960958-64.2-93.128318
2013-04-01T00:551961857-64.2-93.328218
2013-04-01T00:551962657-64.2-93.428218
2013-04-01T00:551963457-64.2-93.328218
2013-04-01T00:561964257-64.0-93.528218
2013-04-01T00:561965057-63.9-93.428217
2013-04-01T00:561965857-64.0-93.428117
2013-04-01T00:561966757-64.0-93.528117
2013-04-01T00:561967457-64.0-93.528117
2013-04-01T00:561968257-64.0-93.528017
2013-04-01T00:561969057-63.9-93.627917
2013-04-01T00:561969757-63.9-93.627917
2013-04-01T00:561970457-63.8-93.527817
2013-04-01T00:561971257-63.7-93.527817
2013-04-01T00:561971957-63.6-93.427717
2013-04-01T00:561972756-63.5-93.327617
2013-04-01T00:561973656-63.4-93.227617
2013-04-01T00:561974356-63.4-93.027617
2013-04-01T00:561975056-63.4-92.927517
2013-04-01T00:561975956-63.4-92.827517
2013-04-01T00:561976656-63.3-92.727517
2013-04-01T00:561977456-63.3-92.527417
2013-04-01T00:561978256-63.3-92.527417
2013-04-01T00:561979056-63.2-92.427417
2013-04-01T00:561979756-63.2-92.327417
2013-04-01T00:561980456-63.1-92.327317
2013-04-01T00:561981156-63.2-92.227317
2013-04-01T00:561981756-63.2-92.227318
2013-04-01T00:561982456-63.3-92.227318
2013-04-01T00:561983256-63.3-92.227318
2013-04-01T00:561984055-63.4-92.227218
2013-04-01T00:561984755-63.4-92.327218
2013-04-01T00:561985555-63.5-92.327218
2013-04-01T00:561986355-63.5-92.327219
2013-04-01T00:571987155-63.6-92.427219
2013-04-01T00:571987855-63.6-92.527219
2013-04-01T00:571988655-63.7-92.627219
2013-04-01T00:571989255-63.7-92.727219
2013-04-01T00:571989955-63.7-92.727219
2013-04-01T00:571990555-63.8-92.727219
2013-04-01T00:571991355-63.8-92.827220
2013-04-01T00:571992055-63.9-92.827220
2013-04-01T00:571992755-63.9-92.927320
2013-04-01T00:571993555-64.0-93.027320
2013-04-01T00:571994455-64.0-93.027320
2013-04-01T00:571995154-64.0-93.127420
2013-04-01T00:571995754-64.0-93.127420
2013-04-01T00:571996454-64.1-93.127520
2013-04-01T00:571997154-64.1-93.227520
2013-04-01T00:571997854-64.2-93.227620
2013-04-01T00:571998654-64.2-93.227620
2013-04-01T00:571999254-64.2-93.227720
2013-04-01T00:572000054-64.3-93.327720
2013-04-01T00:572000654-64.2-93.327820
2013-04-01T00:572001254-64.2-93.327821
2013-04-01T00:572002054-64.2-93.327921
2013-04-01T00:572002754-64.2-93.327921
2013-04-01T00:572003554-64.2-93.328021
2013-04-01T00:572004354-64.2-93.428021
2013-04-01T00:572004954-64.2-93.528121
2013-04-01T00:572005654-64.2-93.528221
2013-04-01T00:572006353-64.3-93.828221
2013-04-01T00:572006953-64.2-93.828321
2013-04-01T00:572007653-64.2-93.828321
2013-04-01T00:582008453-64.2-93.928421
2013-04-01T00:582009253-64.1-93.828521
2013-04-01T00:582009953-63.8-93.628521
2013-04-01T00:582010553-63.5-93.328621
2013-04-01T00:582011253-63.3-93.228721
2013-04-01T00:582011953-63.2-93.228721
2013-04-01T00:582012753-63.2-93.028821
2013-04-01T00:582013453-63.2-92.728821
2013-04-01T00:582014153-63.2-92.628921
2013-04-01T00:582014953-63.3-92.529021
2013-04-01T00:582015753-63.3-92.429021
2013-04-01T00:582016453-63.3-92.529121
2013-04-01T00:582017153-63.3-92.529221
2013-04-01T00:582018052-63.2-92.629321
2013-04-01T00:582018752-63.2-92.729321
2013-04-01T00:582019452-63.2-92.929421
2013-04-01T00:582020252-63.2-93.029521
2013-04-01T00:582021052-63.1-93.129621
2013-04-01T00:582021652-62.9-92.929621
2013-04-01T00:582022352-62.8-92.829721
2013-04-01T00:582023052-62.7-92.729721
2013-04-01T00:582023852-62.6-92.729821
2013-04-01T00:582024552-62.4-92.629921
2013-04-01T00:582025352-62.3-92.529920
2013-04-01T00:582026052-62.2-92.429920
2013-04-01T00:582026652-62.1-92.430020
2013-04-01T00:582027452-62.1-92.230020
2013-04-01T00:582028152-62.0-92.030019
2013-04-01T00:582029052-62.0-91.830019
2013-04-01T00:582029951-62.0-91.730019
2013-04-01T00:592030551-62.0-91.630019
2013-04-01T00:592031351-62.0-91.730018
2013-04-01T00:592032251-62.0-91.629918
2013-04-01T00:592033151-62.0-91.629918
2013-04-01T00:592033851-62.1-91.729918
2013-04-01T00:592034751-62.1-91.729817
2013-04-01T00:592035451-62.2-91.829817
2013-04-01T00:592036251-62.2-92.029717
2013-04-01T00:592036951-62.3-92.229717
2013-04-01T00:592037551-62.3-92.329616
2013-04-01T00:592038351-62.3-92.429616
2013-04-01T00:592039151-62.4-92.429516
2013-04-01T00:592039751-62.4-92.629416
2013-04-01T00:592040651-62.4-92.629316
2013-04-01T00:592041650-62.4-92.529315
2013-04-01T00:592042550-62.4-92.529215
2013-04-01T00:592043350-62.3-92.529115
2013-04-01T00:592044050-62.4-92.529015
2013-04-01T00:592044750-62.4-92.628915
2013-04-01T00:592045450-62.4-92.628715
2013-04-01T00:592046150-62.4-92.628615
2013-04-01T00:592047050-62.4-92.628515
2013-04-01T00:592047850-62.3-92.528415
2013-04-01T00:592048650-62.2-92.428315
2013-04-01T00:592049350-62.1-92.328215
2013-04-01T00:592050050-62.0-92.328115
2013-04-01T00:592050650-62.0-92.328015
2013-04-01T00:592051450-62.0-92.328015
2013-04-01T00:592052350-61.9-92.227915
2013-04-01T00:592053050-61.8-92.127815
2013-04-01T01:002053749-61.7-92.127815
2013-04-01T01:002054649-61.7-92.027816
2013-04-01T01:002055449-61.5-91.927816
2013-04-01T01:002056149-61.2-91.727816
2013-04-01T01:002056849-61.2-91.727816
2013-04-01T01:002057449-61.2-91.727816
2013-04-01T01:002058249-61.0-91.627816
2013-04-01T01:002059249-60.8-91.427816
2013-04-01T01:002060049-60.7-91.327816
2013-04-01T01:002060649-60.6-91.327816
2013-04-01T01:002061349-60.6-91.327816
2013-04-01T01:002062049-60.7-91.327816
2013-04-01T01:002062849-60.6-91.327816
2013-04-01T01:002063849-60.4-91.127817
2013-04-01T01:002064749-60.3-91.027717
2013-04-01T01:002065649-60.3-91.127717
2013-04-01T01:002066349-60.3-91.127717
2013-04-01T01:002067048-60.3-91.127617
2013-04-01T01:002067748-60.3-91.027617
2013-04-01T01:002068448-60.2-91.027517
2013-04-01T01:002069248-60.2-91.027517
2013-04-01T01:002070148-60.2-91.027417
2013-04-01T01:002070848-60.3-91.127418
2013-04-01T01:002071548-60.3-91.127318
2013-04-01T01:002072448-60.3-91.127318
2013-04-01T01:002073348-60.3-91.127218
2013-04-01T01:002074148-60.4-91.127218
2013-04-01T01:002074948-60.5-91.227218
2013-04-01T01:002075748-60.5-91.227218
2013-04-01T01:002076448-60.6-91.327218
2013-04-01T01:012077248-60.6-91.327218
2013-04-01T01:012077948-60.6-91.327218
2013-04-01T01:012078748-60.4-91.227218
2013-04-01T01:012079547-60.1-90.927218
2013-04-01T01:012080447-59.8-90.727318
2013-04-01T01:012081147-59.7-90.727318
2013-04-01T01:012081947-59.8-90.727418
2013-04-01T01:012082647-59.8-90.727518
2013-04-01T01:012083447-59.9-90.827518
2013-04-01T01:012084247-60.0-90.827618
2013-04-01T01:012085047-60.0-90.827618
2013-04-01T01:012086047-60.1-90.927717
2013-04-01T01:012086747-60.1-90.927817
2013-04-01T01:012087447-60.1-90.927817
2013-04-01T01:012088147-60.0-90.827917
2013-04-01T01:012088947-59.7-90.627917
2013-04-01T01:012089747-59.4-90.427917
2013-04-01T01:012090447-59.2-90.328017
2013-04-01T01:012091247-59.1-90.228017
2013-04-01T01:012092147-59.0-90.228017
2013-04-01T01:012092946-59.0-90.128117
2013-04-01T01:012093746-59.0-90.128117
2013-04-01T01:012094646-58.9-90.128117
2013-04-01T01:012095446-58.9-90.128117
2013-04-01T01:012096146-59.0-90.128117
2013-04-01T01:012096846-59.0-90.228117
2013-04-01T01:012097446-59.0-90.228117
2013-04-01T01:012098346-59.0-90.228116
2013-04-01T01:012099146-59.0-90.228116
2013-04-01T01:012099946-59.0-90.128116
2013-04-01T01:022100646-59.0-90.128116
2013-04-01T01:022101346-59.0-90.128016
2013-04-01T01:022102146-59.0-90.228016
2013-04-01T01:022102846-59.1-90.228016
2013-04-01T01:022103546-59.1-90.228016
2013-04-01T01:022104346-59.2-90.327916
2013-04-01T01:022105146-59.2-90.327916
2013-04-01T01:022105946-59.2-90.327916
2013-04-01T01:022106745-59.2-90.327916
2013-04-01T01:022107545-59.2-90.327916
2013-04-01T01:022108245-59.2-90.327916
2013-04-01T01:022109045-59.2-90.327916
2013-04-01T01:022109645-59.2-90.327916
2013-04-01T01:022110445-59.1-90.227916
2013-04-01T01:022111245-59.2-90.227916
2013-04-01T01:022111845-59.2-90.227916
2013-04-01T01:022112445-59.2-90.327916
2013-04-01T01:022113245-59.2-90.327916
2013-04-01T01:022114045-59.2-90.327916
2013-04-01T01:022114645-59.2-90.327916
2013-04-01T01:022115245-59.2-90.327916
2013-04-01T01:022116045-59.2-90.327816
2013-04-01T01:022116845-59.2-90.327816
2013-04-01T01:022117645-59.2-90.327816
2013-04-01T01:022118445-59.2-90.327816
2013-04-01T01:022119245-59.2-90.327916
2013-04-01T01:022119945-59.2-90.327916
2013-04-01T01:022120544-59.3-90.327916
2013-04-01T01:022121344-59.3-90.327916
2013-04-01T01:022122144-59.3-90.427916
2013-04-01T01:032122744-59.3-90.427916
2013-04-01T01:032123444-59.4-90.427916
2013-04-01T01:032124244-59.4-90.428016
2013-04-01T01:032125144-59.5-90.528016
2013-04-01T01:032125944-59.5-90.528016
2013-04-01T01:032126744-59.6-90.528016
2013-04-01T01:032127444-59.6-90.628116
2013-04-01T01:032128144-59.6-90.628116
2013-04-01T01:032129044-59.7-90.628116
2013-04-01T01:032129944-59.7-90.728116
2013-04-01T01:032130444-59.8-90.728216
2013-04-01T01:032130944-59.8-90.728216
2013-04-01T01:032131744-59.8-90.728216
2013-04-01T01:032132544-59.8-90.728216
2013-04-01T01:032133344-59.9-90.828316
2013-04-01T01:032134044-60.0-90.828316
2013-04-01T01:032134843-60.1-90.928316
2013-04-01T01:032135643-60.1-90.928316
2013-04-01T01:032136543-60.2-91.028316
2013-04-01T01:032137243-60.3-91.028316
2013-04-01T01:032137843-60.3-91.128316
2013-04-01T01:032138643-60.4-91.228316
2013-04-01T01:032139343-60.5-91.228316
2013-04-01T01:032140043-60.6-91.328316
2013-04-01T01:032140843-60.6-91.328317
2013-04-01T01:032141643-60.7-91.328317
2013-04-01T01:032142443-60.7-91.428317
2013-04-01T01:032143243-60.8-91.428317
2013-04-01T01:032144043-60.8-91.428317
2013-04-01T01:032144843-60.7-91.428317
2013-04-01T01:042145543-60.7-91.428417
2013-04-01T01:042146443-60.7-91.328417
2013-04-01T01:042147243-60.7-91.328517
2013-04-01T01:042148043-60.7-91.428517
2013-04-01T01:042148743-60.7-91.428617
2013-04-01T01:042149642-60.7-91.428717
2013-04-01T01:042150442-60.7-91.328817
2013-04-01T01:042151242-60.7-91.328917
2013-04-01T01:042152142-60.7-91.329017
2013-04-01T01:042152942-60.6-91.329117
2013-04-01T01:042153942-60.5-91.229217
2013-04-01T01:042154742-60.5-91.229217
2013-04-01T01:042155542-60.5-91.229317
2013-04-01T01:042156342-60.5-91.229416
2013-04-01T01:042157242-60.5-91.229416
2013-04-01T01:042158142-60.4-91.129516
2013-04-01T01:042158942-60.3-91.129516
2013-04-01T01:042159642-60.3-91.129616
2013-04-01T01:042160442-60.4-91.129616
2013-04-01T01:042161342-60.4-91.229616
2013-04-01T01:042162342-60.5-91.229616
2013-04-01T01:042163042-60.5-91.229615
2013-04-01T01:042163841-60.5-91.229615
2013-04-01T01:042164641-60.6-91.329615
2013-04-01T01:042165341-60.6-91.329615
2013-04-01T01:042166141-60.7-91.329615
2013-04-01T01:042166841-60.7-91.329515
2013-04-01T01:042167641-60.8-91.429515
2013-04-01T01:042168641-60.8-91.429515
2013-04-01T01:042169441-60.9-91.529515
2013-04-01T01:052170241-61.0-91.529515
2013-04-01T01:052171041-61.0-91.629615
2013-04-01T01:052171841-61.1-91.629615
2013-04-01T01:052172541-61.1-91.729615
2013-04-01T01:052173441-61.2-91.729615
2013-04-01T01:052174241-61.2-91.729715
2013-04-01T01:052174941-60.8-91.429715
2013-04-01T01:052175841-60.5-91.229715
2013-04-01T01:052176541-60.4-91.129815
2013-04-01T01:052177241-60.4-91.129815
2013-04-01T01:052177941-60.4-91.229915
2013-04-01T01:052178841-60.5-91.230015
2013-04-01T01:052179540-60.5-91.230015
2013-04-01T01:052180240-60.6-91.330115
2013-04-01T01:052181040-60.6-91.330215
2013-04-01T01:052181840-60.6-91.330315
2013-04-01T01:052182640-60.5-91.230415
2013-04-01T01:052183440-60.4-91.230515
2013-04-01T01:052184240-60.3-91.130515
2013-04-01T01:052184940-60.3-91.030615
2013-04-01T01:052185740-60.3-91.030715
2013-04-01T01:052186540-60.3-91.030814
2013-04-01T01:052187340-60.2-91.030914
2013-04-01T01:052187940-60.2-91.030914
2013-04-01T01:052188640-60.2-91.031014
2013-04-01T01:052189440-60.3-91.031114
2013-04-01T01:052190240-60.3-91.031114
2013-04-01T01:052190940-60.3-91.131214
2013-04-01T01:052191640-60.3-91.131214
2013-04-01T01:052192340-60.3-91.131213
2013-04-01T01:062193240-60.4-91.131313
2013-04-01T01:062194040-60.5-91.231313
2013-04-01T01:062194739-60.5-91.231313
2013-04-01T01:062195439-60.5-91.231313
2013-04-01T01:062196239-60.5-91.231313
2013-04-01T01:062197039-60.6-91.331313
2013-04-01T01:062197839-60.6-91.331313
2013-04-01T01:062198739-60.7-91.331312
2013-04-01T01:062199439-60.7-91.331312
2013-04-01T01:062200239-60.7-91.431212
2013-04-01T01:062201039-60.8-91.431212
2013-04-01T01:062202039-60.8-91.431212
2013-04-01T01:062202739-60.9-91.531212
2013-04-01T01:062203439-60.9-91.531111
2013-04-01T01:062204239-61.0-91.531111
2013-04-01T01:062205039-61.0-91.631111
2013-04-01T01:062205739-61.0-91.631111
2013-04-01T01:062206439-61.1-91.631011
2013-04-01T01:062207239-61.1-91.731011
2013-04-01T01:062208239-61.2-91.731011

Only the first 2000 rows were shown. To view the complete dataset, download it as tab-delimited text. You can still view the full matrix in your browser, but be aware that this may crash the browser due to the huge size.